[{"header": {"dx": 0.06612293990616946, "dy": 0.0552356325346848, "nx": 98, "ny": 59, "la1": 35.046912555036876, "la2": 31.78801023549047, "lo1": -121.43107172385933, "lo2": -114.95102361305473, "refTime": "2026041009", "parameterCategory": 1, "parameterNumber": 2}, "data": [2.63, 2.4, 2.15, 1.61, 1.2, 0.53, -0.0, -1.16, -1.84, -1.16, -0.65, -0.0, -0.0, -0.0, -0.8, -1.26, -1.26, -0.63, -0.6, -0.0, -0.0, 0.87, 2.07, 2.84, 2.86, 2.5, 2.21, 1.24, -0.0, -0.0, -0.6, -1.2, -1.79, -1.79, -1.79, -0.89, 0.0, 0.45, 0.45, -0.0, -0.45, 0.0, 0.63, 2.23, 4.4, 6.54, 7.6, 8.55, 7.89, 5.36, 4.46, 4.65, 6.01, 6.32, 6.32, 6.32, 7.02, 7.02, 7.69, 7.69, 8.05, 7.67, 8.0, 7.6, 6.64, 6.7, 7.67, 8.67, 9.84, 11.62, 11.45, 10.95, 9.83, 8.63, 7.21, 7.21, 4.24, 0.45, -2.12, -2.17, -2.4, -2.5, -2.53, -1.88, -1.6, -0.7, 0.0, 0.87, 3.07, 6.44, 9.05, 9.3, 10.29, 10.29, 10.53, 10.28, 9.27, 8.05, 2.6, 2.4, 1.86, 1.24, 1.2, 0.65, -0.0, -0.61, -1.16, -1.16, -0.65, -0.0, -0.0, -0.0, -0.0, -0.0, -0.95, -0.63, -0.6, -0.71, -0.71, -0.0, 1.8, 2.99, 2.84, 2.5, 1.58, 0.6, -0.0, -0.0, -0.0, -0.0, -0.6, -1.34, -1.79, -1.34, 0.45, 0.0, -0.0, -0.0, -0.45, 0.0, 1.24, 2.84, 5.09, 6.7, 7.67, 6.54, 4.02, 3.84, 4.65, 5.69, 6.39, 6.35, 5.69, 6.01, 6.68, 7.33, 8.06, 8.3, 8.63, 8.24, 8.0, 7.03, 6.07, 6.08, 7.06, 8.67, 9.84, 11.62, 11.62, 10.95, 9.83, 8.63, 7.28, 7.71, 8.36, 0.45, -2.12, -2.17, -2.4, -2.5, -2.53, -1.88, -1.6, -0.7, 0.0, 0.87, 3.07, 6.44, 9.05, 9.3, 10.29, 10.29, 10.53, 10.28, 9.27, 8.05, 2.6, 2.17, 1.86, 1.24, 1.0, 0.65, -0.0, -0.0, -1.2, -1.2, -0.65, -0.0, -0.0, -0.0, -0.0, -0.0, -0.0, -0.0, -0.95, -0.8, -0.99, -0.57, -0.0, 1.6, 4.19, 3.72, 1.88, 0.6, -0.63, -1.24, -0.61, -0.0, 0.59, 0.85, 0.95, 0.89, 0.0, 0.0, 0.0, 0.0, 0.0, 0.53, 2.3, 4.65, 5.3, 5.37, 4.4, 3.07, 3.48, 4.74, 5.77, 6.08, 6.08, 5.72, 5.72, 6.06, 7.06, 7.69, 8.3, 8.63, 8.63, 8.55, 8.0, 6.44, 4.74, 5.37, 7.02, 8.68, 9.9, 11.2, 12.04, 11.45, 10.49, 8.8, 7.11, 8.01, 9.81, 2.68, -1.86, -2.91, -2.8, -2.5, -2.53, -2.15, -1.88, -1.4, 0.0, 0.7, 3.22, 7.68, 10.29, 10.28, 9.9, 10.24, 9.92, 8.67, 7.6, 6.54, 2.24, 2.12, 1.86, 1.24, 1.24, 0.54, -0.0, -0.0, -0.65, -1.2, -0.54, -0.0, -0.0, -0.0, -0.0, -0.0, -0.0, 0.45, 0.45, -0.6, -0.8, -0.6, -0.0, -0.0, 1.84, 4.47, 3.64, 1.88, -0.0, -1.9, -1.88, -0.59, -0.0, 1.49, 2.68, 2.86, 2.8, 1.79, 1.2, 0.95, 1.2, 2.07, 3.11, 3.72, 3.48, 2.91, 2.8, 3.79, 4.74, 5.43, 5.72, 5.43, 5.43, 5.43, 5.06, 6.06, 6.7, 7.69, 8.63, 8.63, 9.08, 8.55, 7.03, 4.74, 4.65, 5.3, 7.35, 8.59, 9.84, 11.37, 12.39, 12.37, 10.93, 8.49, 5.81, 6.66, 8.91, 5.36, -1.26, -4.0, -3.07, -2.5, -2.53, -3.16, -2.86, -1.49, 0.0, 1.49, 4.83, 9.27, 10.9, 10.24, 9.23, 7.69, 4.66, 4.02, 5.77, 6.07, 2.24, 2.12, 1.86, 1.24, 1.24, 0.54, 0.54, -0.0, -0.54, -0.71, -0.57, -0.0, -0.0, -0.0, -0.0, 0.89, 0.45, 0.89, 0.0, -0.32, -0.0, -0.0, -0.0, -0.0, 0.61, 1.6, 4.19, 4.47, 1.98, -0.0, -1.49, -1.4, -0.65, 0.53, 2.53, 4.57, 4.57, 4.38, 3.07, 1.9, 2.21, 3.07, 3.07, 3.51, 3.13, 3.45, 4.46, 4.43, 5.46, 5.46, 4.81, 5.09, 4.74, 5.09, 5.37, 6.7, 7.07, 7.67, 8.63, 9.49, 8.82, 7.03, 4.74, 3.9, 4.71, 6.24, 6.53, 7.64, 9.27, 11.28, 13.04, 14.17, 12.49, 9.72, 5.77, 4.52, 5.34, 3.51, -0.6, -4.66, -4.09, -2.53, -2.84, -4.46, -4.46, -1.4, 0.7, 4.83, 7.82, 10.18, 10.24, 9.62, 5.77, 0.6, -0.0, 2.8, 6.71, 7.89, 1.79, 1.7, 1.26, 1.24, 0.71, 0.71, 0.71, -0.0, -0.0, -0.57, -0.6, -0.0, -0.0, 0.89, 0.89, 0.89, 0.0, 0.89, 0.45, 0.45, -0.45, 0.0, -0.0, 0.8, 1.49, 1.49, 2.53, 3.48, 4.43, 3.22, 0.65, -0.0, -0.0, 0.8, 2.6, 3.53, 3.97, 6.22, 3.58, 1.2, 0.63, 1.79, 3.07, 3.74, 4.46, 4.43, 4.74, 5.09, 4.46, 3.84, 3.84, 4.12, 4.81, 5.09, 6.07, 7.03, 7.03, 7.47, 8.67, 10.25, 7.89, 4.46, 3.11, 3.69, 4.6, 6.42, 6.53, 6.64, 7.64, 10.29, 13.04, 14.3, 14.3, 13.29, 10.25, 4.73, 2.53, 1.9, 0.0, -3.49, -4.43, -2.88, -2.98, -3.72, -3.11, 0.0, 3.88, 8.46, 10.12, 9.48, 9.23, 6.64, 0.89, -1.27, -0.0, 3.58, 8.8, 8.91, 1.79, 1.6, 1.26, 0.99, 0.71, 0.71, 0.71, 0.57, -0.0, -0.0, -0.0, -0.0, 0.89, 0.45, 0.89, 0.89, 0.45, 0.95, 1.26, 0.0, 0.0, 0.0, 0.0, 0.45, 1.34, 1.7, 2.12, 3.04, 2.8, 2.53, 3.22, 1.49, 1.4, 1.9, 2.6, 3.13, 3.58, 6.17, 3.47, -0.0, -1.2, -0.0, 0.95, 2.21, 3.16, 4.01, 5.3, 5.3, 4.74, 4.74, 4.43, 2.84, 4.46, 5.05, 5.43, 5.86, 6.07, 6.07, 7.92, 8.82, 4.93, 2.15, 2.2, 2.9, 4.71, 6.14, 6.64, 6.44, 7.03, 9.6, 12.14, 13.07, 14.07, 15.61, 14.57, 9.39, 2.8, 0.57, 1.58, 1.84, -2.35, -2.31, -2.4, -2.26, -0.73, 2.15, 6.1, 9.31, 10.12, 8.85, 6.28, 1.24, -0.65, -0.61, 1.26, 4.87, 9.08, 9.2, 1.2, 0.95, 0.8, 0.57, 0.57, 0.57, 0.57, 0.57, -0.0, -0.0, -0.0, -0.0, 1.34, 0.89, 0.89, 0.45, 0.45, 0.95, 1.6, 1.79, 0.45, 0.45, 0.4, 0.57, 0.99, 1.6, 2.12, 1.34, 0.63, 1.24, 2.21, 2.53, 2.21, 2.8, 3.51, 3.13, 3.13, 4.47, 4.92, 1.26, -0.95, -1.34, -0.89, -0.0, 0.71, 1.83, 3.91, 5.38, 6.24, 5.44, 2.5, 2.86, 4.4, 5.34, 5.16, 4.87, 4.47, 4.47, 7.15, 6.21, 3.32, 1.49, 1.16, 3.11, 4.29, 6.01, 7.33, 6.94, 6.21, 8.01, 10.62, 12.42, 13.77, 15.18, 14.29, 11.15, 5.36, 2.68, 3.53, 6.64, 3.55, -1.4, -1.36, 0.0, 1.33, 4.32, 7.19, 8.95, 9.17, 7.27, 1.9, -0.6, -1.2, -0.0, 2.24, 6.79, 9.2, 9.2, 1.6, 1.26, 0.8, 0.57, 0.57, 0.57, 0.57, 0.8, 0.6, -0.0, -0.0, 0.63, 1.34, 1.34, 1.34, 0.0, 0.0, 0.95, 1.34, 0.45, 0.45, 0.89, 1.34, 1.26, 1.24, 1.24, 1.58, 0.0, 0.0, 1.34, 2.24, 2.24, 2.24, 2.12, 3.07, 3.13, 3.04, 3.47, 3.58, 1.6, 0.45, -1.34, -1.34, -0.89, -0.0, -0.0, 0.96, 4.46, 6.14, 6.24, 5.44, 3.79, 4.46, 4.8, 5.16, 4.41, 4.02, 4.41, 4.47, 3.51, 2.79, 1.41, 1.49, 2.4, 3.9, 6.32, 8.32, 7.89, 5.36, 6.51, 8.91, 11.18, 13.86, 14.3, 12.52, 9.39, 7.15, 7.15, 9.81, 11.09, 7.89, 0.0, 0.0, 0.72, 2.06, 4.23, 6.29, 8.53, 8.24, 5.09, 0.89, -0.0, -0.0, 0.89, 2.91, 7.6, 9.2, 8.3, 1.26, 1.26, 0.8, 0.57, 0.8, 0.8, 1.26, 1.26, 0.6, 0.95, -0.0, 0.89, 1.34, 1.79, 1.79, 1.58, 1.0, 0.85, 0.0, 0.0, 0.0, 0.6, 1.26, 1.58, 0.71, 1.49, 0.57, 0.0, 0.0, 1.86, 2.23, 1.2, 0.0, 0.0, 1.34, 3.13, 4.47, 3.13, 2.24, 0.89, 0.0, -0.32, 0.45, 0.0, -0.0, 0.65, 1.2, 2.15, 3.64, 5.21, 5.38, 5.38, 6.01, 5.43, 5.05, 4.93, 4.24, 3.07, 2.12, 1.2, 1.55, 2.23, 3.14, 3.2, 3.91, 6.24, 8.65, 8.88, 5.77, 5.2, 6.64, 9.89, 12.35, 13.34, 12.05, 8.84, 6.54, 7.47, 9.46, 12.88, 12.44, 5.86, 0.0, 0.65, 2.12, 3.51, 5.46, 6.62, 6.35, 3.14, 1.7, 1.34, 1.2, 1.58, 4.09, 8.24, 9.27, 8.06, 1.26, 0.99, 0.99, 0.99, 1.26, 1.26, 1.26, 1.26, 1.26, 0.95, 0.63, 0.89, 1.34, 1.79, 2.68, 2.54, 2.21, 1.84, 1.8, 1.13, 0.71, 1.24, 1.24, 1.24, 1.4, 0.8, 0.8, 0.8, 0.8, 2.23, 2.12, 0.45, -0.89, -0.89, 0.63, 2.68, 3.58, 2.24, 0.89, 0.89, 0.89, 0.45, 1.34, 2.4, 1.4, 0.61, 0.61, 0.7, 1.27, 2.2, 3.88, 5.41, 6.2, 6.31, 6.14, 6.14, 6.58, 3.07, 0.45, -0.79, -0.0, 2.31, 3.06, 2.23, 3.02, 5.51, 8.37, 9.23, 7.44, 4.47, 5.05, 7.28, 9.68, 10.84, 10.52, 8.55, 5.69, 4.74, 6.7, 10.15, 11.89, 8.84, 2.5, 1.27, 1.35, 2.04, 3.69, 4.67, 4.43, 2.21, 1.88, 1.88, 1.88, 2.15, 5.43, 8.67, 9.3, 6.7, 1.24, 1.24, 1.24, 0.99, 1.26, 1.26, 1.26, 1.26, 1.26, 1.6, 1.2, 0.89, 1.34, 2.24, 2.68, 3.09, 3.09, 3.39, 4.11, 4.3, 4.44, 4.47, 4.02, 4.47, 4.02, 3.58, 4.02, 3.13, 2.24, 1.79, 1.79, 0.89, -0.63, -0.45, 0.0, 1.2, 1.34, 0.45, 0.0, 0.0, 0.63, 0.57, 1.24, 1.6, -0.0, -0.0, -0.0, -0.0, 0.95, 1.01, 1.49, 2.97, 4.68, 5.4, 5.4, 5.6, 7.69, 8.16, 2.21, -1.49, -0.74, 1.5, 2.35, 0.74, 0.76, 3.73, 7.11, 9.39, 9.4, 7.97, 6.54, 5.36, 7.12, 8.36, 8.19, 5.86, 2.53, 2.07, 4.36, 6.0, 6.28, 5.81, 3.07, 0.65, 1.2, 2.53, 3.43, 2.79, 1.88, 1.9, 1.88, 2.0, 1.94, 2.88, 6.01, 9.3, 8.93, 2.84, 1.58, 1.24, 1.24, 1.24, 1.58, 1.26, 1.26, 1.26, 1.26, 1.6, 1.6, 1.34, 1.34, 2.24, 2.68, 3.58, 4.02, 4.44, 4.89, 5.81, 6.26, 7.13, 7.13, 7.07, 7.06, 7.06, 7.06, 6.94, 6.04, 4.44, 1.79, 1.79, 0.45, 0.0, 0.0, -0.0, -0.45, -0.32, -0.45, -0.0, -0.0, 0.57, 0.54, -0.0, -0.0, -0.76, -0.76, -0.76, -0.0, -0.0, -0.0, 0.66, 1.27, 1.35, 1.98, 3.0, 4.4, 11.06, 8.3, -0.0, -2.23, 0.74, 0.81, -0.0, -0.76, -0.0, 3.66, 6.8, 8.61, 10.25, 11.14, 9.92, 8.95, 7.92, 5.81, 2.6, 0.63, 0.57, 2.21, 2.5, 2.23, 3.07, 4.43, 2.4, 0.99, 2.5, 3.22, 2.15, 2.12, 2.17, 1.86, 1.4, 1.27, 3.2, 6.42, 9.27, 8.06, 1.9, 1.9, 1.58, 1.58, 1.86, 1.86, 1.86, 1.86, 1.86, 1.7, 1.7, 1.7, 1.79, 1.79, 2.24, 2.68, 3.13, 4.02, 4.44, 5.33, 5.78, 6.26, 7.15, 7.58, 7.58, 7.97, 7.97, 7.97, 8.3, 7.87, 6.61, 4.92, 3.58, 2.24, 0.45, 0.45, -0.0, -0.0, -0.0, -0.0, -0.0, -0.0, -0.0, -0.0, -0.0, -0.0, -1.41, -0.71, -0.8, -0.8, -0.57, -0.0, -0.0, 0.45, 0.45, 0.0, 0.0, -0.0, 8.8, 13.2, 1.27, -2.9, -1.0, -0.0, -1.04, -1.6, -1.52, -0.0, 2.11, 6.21, 8.66, 10.98, 11.76, 11.53, 9.74, 4.73, 1.9, 0.54, 1.6, 1.79, 2.12, 1.86, 3.22, 5.2, 4.66, 1.24, 2.5, 2.8, 2.6, 2.24, 2.68, 3.13, 2.4, 1.84, 3.11, 5.86, 7.97, 6.44, 2.4, 1.9, 1.9, 1.9, 1.86, 1.86, 1.86, 1.86, 1.86, 2.12, 2.12, 2.12, 2.24, 2.24, 2.24, 2.68, 3.13, 3.58, 4.44, 4.89, 5.36, 6.26, 6.71, 7.15, 7.58, 7.52, 7.97, 7.97, 8.41, 8.42, 7.97, 6.26, 4.44, 3.39, 2.24, 1.79, 1.58, 1.4, 1.26, 2.4, 0.8, 0.89, 1.79, 1.79, -0.0, -0.0, -0.0, -1.4, -1.2, -1.58, -0.63, 0.45, 0.45, 0.0, 0.0, 0.0, -1.6, -0.57, 4.73, 11.99, 5.69, -1.27, -1.74, -1.6, -1.6, -1.6, -1.8, -0.87, -0.0, 2.32, 6.4, 9.23, 12.13, 12.29, 10.02, 4.3, 2.98, 3.55, 5.43, 4.8, 3.13, 2.4, 3.16, 4.11, 4.43, 3.38, 2.84, 2.5, 2.17, 2.17, 3.04, 3.82, 3.82, 2.86, 2.84, 4.43, 4.46, 2.8, 2.8, 2.15, 2.15, 2.15, 2.4, 2.4, 2.0, 2.0, 2.0, 2.17, 2.17, 2.17, 2.17, 2.24, 2.68, 2.68, 3.13, 3.58, 4.02, 4.47, 5.36, 5.81, 6.26, 6.71, 7.15, 7.13, 7.51, 7.97, 8.41, 8.42, 8.41, 7.58, 5.81, 3.98, 3.58, 2.24, 0.6, 0.71, 1.24, 3.2, 2.68, 1.34, 1.34, 2.24, 1.58, -0.0, -0.0, -1.4, -0.0, -0.0, -0.0, 0.45, 0.45, 0.45, 0.45, 0.45, 0.45, 0.0, 2.84, 5.36, 2.53, -0.0, -0.0, -1.4, -1.4, -1.6, -1.6, -1.86, -0.76, 1.84, 6.64, 9.6, 12.33, 13.41, 8.46, 2.86, 2.12, 5.28, 7.52, 7.64, 7.32, 6.54, 5.31, 4.41, 3.84, 2.29, 1.6, 2.3, 2.15, 2.21, 2.84, 4.46, 2.86, 2.4, 4.0, 5.69, 3.72, 3.07, 3.07, 2.5, 2.5, 2.5, 2.4, 2.4, 2.4, 2.4, 2.4, 2.6, 2.6, 2.6, 2.6, 2.68, 2.68, 2.68, 3.13, 3.58, 4.02, 4.47, 4.92, 5.36, 5.81, 6.26, 6.71, 6.68, 7.58, 7.58, 8.03, 8.03, 8.03, 8.03, 6.71, 4.89, 4.24, 0.89, 0.63, 0.6, 2.12, 2.24, 4.02, 2.8, 0.89, 1.79, 0.63, -0.0, -0.0, -0.0, -0.0, -0.0, -0.0, -0.0, -0.0, -0.0, 1.58, 1.58, 2.68, 3.13, 2.68, 1.4, 1.13, 1.4, 1.58, -0.0, -0.0, -0.0, -0.45, -1.34, -1.26, 0.71, 7.81, 13.36, 14.23, 12.14, 3.58, 0.59, 2.23, 6.33, 9.4, 10.52, 10.55, 10.55, 10.48, 9.83, 5.81, 1.9, 0.0, 1.35, 1.27, 2.4, 4.01, 4.12, 2.5, 2.15, 4.09, 5.46, 4.12, 2.53, 2.53, 2.68, 2.68, 2.68, 2.91, 2.91, 2.4, 2.4, 2.4, 2.6, 2.6, 2.6, 2.6, 2.68, 2.68, 2.68, 3.13, 3.58, 3.58, 4.02, 4.92, 5.36, 5.81, 5.81, 5.81, 6.23, 6.68, 7.15, 7.15, 7.15, 7.15, 7.15, 6.71, 5.36, 3.98, 3.07, 0.89, 0.8, 2.12, 3.04, 3.04, 2.23, 0.95, 0.45, 0.89, 1.58, -0.0, -0.0, -0.0, -0.0, 1.58, 1.2, 1.2, 1.2, 1.2, 1.9, 2.8, 2.53, 2.23, 1.6, 1.4, 2.8, 2.8, 1.9, -0.0, -1.27, -0.0, -0.0, -0.6, 0.76, 8.4, 15.49, 15.12, 10.73, 3.45, 1.41, 2.35, 6.14, 10.91, 12.51, 12.39, 11.75, 12.14, 12.58, 4.92, 0.0, -0.61, 0.0, 0.76, 2.2, 3.11, 2.79, 2.5, 2.84, 4.43, 5.09, 3.49, 3.16, 3.16, 3.07, 3.07, 3.2, 3.32, 2.91, 2.91, 2.91, 2.91, 3.07, 2.63, 2.63, 2.63, 2.68, 2.68, 2.68, 3.58, 3.13, 3.58, 4.02, 4.47, 5.36, 5.33, 4.44, 4.47, 4.92, 5.81, 4.92, 4.47, 4.92, 5.81, 5.81, 6.23, 5.78, 4.92, 3.98, 3.39, 3.2, 3.43, 3.2, 2.98, 2.8, 2.12, 1.6, 2.68, 2.4, 2.4, 2.4, 1.9, 1.58, 1.58, 1.9, 1.4, 1.4, 1.4, 1.13, 2.23, 2.53, 3.35, 3.82, 3.82, 3.58, 3.58, 2.68, -0.0, -1.2, -1.2, -0.0, 0.57, 2.73, 8.0, 12.79, 15.01, 16.33, 14.17, 9.49, 4.73, 4.92, 9.36, 12.87, 13.67, 12.94, 12.96, 12.96, 8.02, 1.24, -0.61, 0.0, 0.61, 1.6, 1.35, 1.27, 2.98, 4.36, 4.29, 4.01, 3.48, 2.53, 2.53, 3.6, 3.6, 3.39, 3.39, 3.39, 2.91, 2.91, 2.91, 2.91, 3.07, 3.07, 3.07, 3.07, 3.13, 3.13, 3.13, 3.13, 3.13, 3.58, 4.47, 5.36, 4.43, 3.39, 3.6, 4.57, 4.85, 3.58, 4.92, 5.36, 5.36, 5.34, 5.7, 6.16, 5.7, 5.36, 4.92, 4.44, 4.77, 5.24, 5.24, 5.33, 4.92, 4.47, 3.98, 3.87, 3.82, 3.39, 2.8, 2.68, 2.24, 1.58, 1.9, 1.4, -0.0, 0.71, 1.2, 3.79, 2.4, 2.24, 4.02, 3.58, 3.13, 2.24, -0.0, -1.24, -1.24, -0.57, 0.63, 3.13, 6.26, 9.83, 13.89, 18.32, 19.52, 16.07, 11.18, 8.32, 8.65, 13.05, 13.77, 13.84, 13.84, 13.33, 8.36, 0.57, -1.58, -0.6, 0.89, 1.2, 0.61, 0.76, 3.09, 4.46, 3.0, 2.6, 3.72, 3.07, 3.07, 3.7, 3.87, 3.87, 3.82, 3.39, 3.39, 3.39, 3.39, 3.39, 3.09, 3.09, 3.09, 3.13, 3.13, 3.13, 3.13, 3.13, 3.13, 3.53, 4.85, 4.85, 3.53, 3.09, 3.39, 4.11, 4.77, 4.89, 5.36, 5.34, 5.78, 5.7, 6.14, 6.16, 6.61, 6.6, 5.79, 5.36, 5.36, 5.36, 5.81, 5.81, 5.81, 5.36, 5.78, 5.33, 4.92, 4.47, 4.02, 3.13, 2.68, 2.24, 1.58, -0.0, -0.0, 1.27, 1.2, 2.41, 2.53, 3.82, 2.8, 2.8, 1.58, 0.89, -1.58, -1.26, -1.26, -1.26, -0.0, 1.88, 4.95, 7.18, 11.9, 16.55, 19.26, 16.97, 13.43, 9.16, 10.15, 10.81, 11.88, 13.29, 13.67, 13.84, 10.28, 2.68, -0.63, -0.45, 1.2, 3.13, 1.9, 2.11, 3.09, 2.8, 1.27, 1.41, 2.11, 2.0, 2.0, 4.3, 4.3, 3.87, 3.87, 3.82, 3.39, 3.39, 3.39, 3.39, 3.53, 3.53, 3.53, 3.58, 3.58, 3.58, 3.58, 3.58, 3.53, 4.3, 4.77, 4.88, 4.47, 4.02, 3.98, 4.44, 4.88, 4.92, 5.36, 5.81, 5.78, 6.23, 6.16, 6.6, 6.61, 7.06, 6.61, 6.23, 6.26, 5.81, 5.81, 5.81, 5.81, 5.81, 5.81, 5.78, 5.33, 5.36, 4.47, 3.58, 2.68, 1.79, -0.0, -0.0, -0.0, -0.0, 1.19, 1.41, 2.29, 2.73, 1.79, 0.0, 0.0, 0.0, -0.95, -1.26, -0.71, -0.57, -0.57, -0.0, -0.0, 2.06, 8.66, 15.13, 17.73, 5.59, 5.52, 7.11, 8.09, 8.51, 8.96, 10.9, 12.4, 12.77, 11.62, 8.05, 2.68, 0.63, 1.7, 5.2, 4.52, 4.07, 2.66, 1.16, 0.57, 0.54, 1.16, 1.33, 1.33, 4.34, 4.34, 4.34, 4.3, 3.87, 3.82, 3.82, 3.82, 3.82, 3.53, 3.53, 3.53, 3.58, 3.58, 3.58, 3.58, 3.58, 3.98, 4.43, 4.44, 4.88, 4.92, 4.92, 4.92, 4.89, 5.33, 5.36, 5.36, 5.36, 5.81, 6.23, 6.23, 6.23, 6.68, 6.68, 7.13, 7.13, 6.71, 6.26, 6.26, 6.26, 6.26, 5.81, 5.81, 5.34, 4.89, 5.36, 4.47, 3.58, 2.68, 1.79, -0.0, -0.0, -0.0, -0.0, -0.0, -0.0, 0.73, 1.8, 2.23, 0.63, 0.0, 0.45, -0.0, -0.54, -0.65, -0.0, -0.0, -0.0, -0.53, -1.74, 0.87, 17.91, 11.64, 0.0, -1.32, 2.76, 5.64, 6.52, 7.11, 8.51, 9.9, 10.23, 10.32, 9.72, 7.11, 3.32, 3.49, 7.32, 6.4, 3.78, 0.71, 0.0, 0.0, 0.0, 1.2, 1.84, 1.84, 4.77, 4.77, 4.34, 4.34, 4.3, 3.87, 3.87, 3.87, 3.87, 3.98, 3.98, 3.98, 4.02, 4.02, 3.58, 4.02, 4.02, 3.98, 3.98, 4.44, 4.88, 4.89, 4.89, 5.33, 5.33, 5.34, 5.34, 5.34, 5.36, 5.81, 5.81, 6.26, 6.23, 6.68, 6.68, 6.68, 7.13, 7.13, 6.71, 6.26, 6.26, 6.26, 5.81, 5.81, 5.36, 4.92, 5.81, 4.92, 4.02, 3.13, 2.68, 1.58, -0.0, -0.0, -0.0, -0.0, -0.0, -0.0, 1.4, 2.86, 2.68, 1.26, 0.0, -0.0, -0.65, -0.0, -0.0, -0.0, -0.0, -0.0, -1.34, 11.13, 17.88, 17.27, 9.33, 0.0, 0.0, 3.08, 5.33, 4.87, 6.51, 7.6, 8.53, 9.21, 8.88, 7.6, 6.07, 5.37, 4.43, 1.79, 1.79, 0.45, 0.0, 0.0, 0.6, 1.2, 1.84, 1.84, 4.77, 4.77, 4.77, 4.77, 4.19, 4.11, 4.3, 4.3, 4.3, 4.3, 3.98, 3.98, 3.98, 4.02, 4.02, 4.02, 4.02, 4.02, 4.43, 4.44, 4.44, 4.88, 4.89, 4.89, 5.33, 5.34, 5.34, 5.34, 5.34, 5.34, 5.81, 5.81, 6.26, 6.26, 6.26, 6.71, 6.71, 7.15, 6.71, 6.71, 6.26, 6.26, 6.26, 5.81, 5.36, 5.36, 5.36, 5.81, 5.36, 4.92, 4.02, 3.13, 1.9, 1.2, -0.0, -0.0, -0.0, -0.6, -0.0, 2.6, 3.58, 3.13, 1.2, -0.0, -0.0, -0.0, -0.0, -0.0, -0.0, 0.0, 1.49, 8.05, 15.16, 17.15, 18.45, 14.27, 4.02, 1.33, 3.3, 3.91, 4.79, 6.4, 8.05, 8.79, 7.97, 6.08, 5.46, 2.84, 1.2, -0.0, 1.16, 0.57, 1.34, 1.2, 1.24, 1.4, 1.88, 1.88, 4.77, 4.77, 4.77, 4.77, 4.6, 4.19, 4.11, 4.34, 4.34, 4.34, 4.44, 4.43, 3.98, 4.02, 4.02, 4.02, 4.02, 4.02, 4.47, 4.44, 4.44, 4.44, 4.88, 4.89, 4.89, 5.33, 5.33, 5.34, 5.34, 5.34, 5.78, 5.81, 6.26, 6.26, 6.26, 6.26, 6.71, 6.71, 6.71, 6.71, 6.71, 6.26, 6.26, 5.81, 5.81, 5.81, 5.81, 6.26, 6.26, 6.26, 5.36, 4.02, 3.13, 2.4, 1.2, -0.0, -0.0, -0.0, 0.89, 0.89, 3.13, 3.58, 3.13, 1.2, -0.0, -0.0, -0.0, -0.0, -0.0, 0.45, 1.4, 5.59, 10.7, 15.57, 17.68, 18.57, 17.67, 9.74, 3.69, 2.89, 3.87, 5.55, 7.03, 7.46, 5.98, 5.09, 5.43, 2.91, 0.8, -0.0, 1.26, 2.4, 2.68, 2.4, 1.9, 1.2, 1.2, 1.2, 4.8, 4.8, 4.77, 4.6, 4.6, 4.6, 4.19, 4.19, 4.77, 4.77, 4.44, 4.44, 4.44, 4.47, 4.47, 4.02, 4.47, 4.47, 4.47, 4.47, 4.44, 4.44, 4.88, 4.88, 4.89, 4.89, 5.33, 5.33, 5.33, 5.34, 5.34, 5.34, 5.78, 5.81, 5.81, 5.81, 6.26, 6.26, 6.26, 6.71, 6.71, 6.71, 6.26, 5.81, 5.81, 5.81, 5.81, 6.26, 6.26, 6.26, 5.81, 4.47, 3.58, 2.6, 1.2, 0.6, -0.0, -0.0, -0.0, 0.45, 0.89, 3.13, 4.02, 2.6, -0.0, -0.0, -0.0, -0.0, -0.0, 0.89, 1.9, 3.83, 7.71, 11.18, 12.87, 14.83, 19.77, 16.76, 6.08, 1.54, 2.28, 4.61, 5.45, 5.54, 4.8, 5.64, 6.08, 2.91, 1.7, 1.2, 1.79, 2.91, 3.53, 3.32, 2.5, 1.61, 1.2, 1.2, 4.8, 4.8, 4.8, 4.6, 4.6, 4.6, 4.6, 4.6, 4.77, 4.77, 4.77, 4.44, 4.44, 4.44, 4.47, 4.47, 4.47, 4.47, 4.47, 4.47, 4.47, 4.88, 4.88, 4.88, 4.88, 4.89, 4.89, 4.89, 5.33, 5.33, 5.33, 5.33, 5.33, 5.36, 5.81, 5.81, 5.81, 5.81, 6.26, 6.26, 6.71, 6.26, 5.81, 5.34, 5.33, 5.33, 5.78, 5.81, 6.26, 6.26, 5.36, 4.47, 3.58, 3.07, 2.17, 0.63, -0.0, -0.0, -0.0, -0.45, 0.0, 2.68, 3.58, 2.8, 0.65, -0.0, 0.61, 1.24, 0.89, 1.34, 2.17, 3.74, 5.82, 6.4, 8.46, 12.96, 17.88, 17.73, 4.92, 0.0, 1.5, 3.27, 3.91, 4.31, 4.0, 4.22, 2.51, 2.6, 2.68, 2.68, 2.6, 3.32, 3.82, 3.82, 3.2, 2.5, 1.61, 1.61, 4.8, 4.8, 4.66, 4.6, 4.6, 4.6, 4.6, 4.6, 4.8, 4.8, 4.77, 4.88, 4.44, 4.44, 4.47, 4.47, 4.47, 4.47, 4.47, 4.47, 4.47, 4.88, 4.88, 4.88, 4.88, 4.89, 4.89, 4.89, 4.89, 5.33, 5.33, 5.33, 5.33, 5.33, 5.36, 5.36, 5.81, 5.81, 5.81, 6.26, 6.26, 6.26, 5.36, 5.36, 4.85, 4.6, 5.78, 5.81, 5.78, 5.81, 5.36, 4.47, 4.02, 3.13, 2.68, 1.79, 0.89, 0.0, 0.45, -0.45, 0.0, 2.6, 2.68, 1.26, -0.0, -0.0, 0.59, 1.88, 1.7, 1.34, 2.17, 5.31, 7.21, 7.06, 8.53, 12.78, 15.19, 15.61, 8.94, 1.2, 0.0, 2.14, 2.8, 2.86, 1.84, 1.86, 0.89, 1.34, 2.24, 2.68, 2.24, 2.68, 3.53, 4.52, 4.3, 3.39, 3.07, 3.07, 5.24, 5.24, 5.09, 4.66, 4.6, 4.6, 4.66, 5.09, 5.24, 5.24, 4.8, 4.77, 4.88, 4.88, 4.44, 4.47, 4.47, 4.47, 4.47, 4.47, 4.92, 4.88, 4.88, 4.88, 4.88, 4.89, 4.89, 4.89, 4.89, 4.89, 5.33, 4.89, 4.89, 4.89, 4.92, 5.36, 5.36, 5.36, 5.81, 5.81, 6.26, 5.81, 5.36, 4.47, 3.13, 4.47, 4.92, 5.78, 4.88, 4.02, 4.02, 4.02, 4.02, 3.13, 2.68, 2.24, 1.79, 1.34, 0.0, 0.0, 0.63, 2.12, 1.79, -0.0, -0.65, -0.61, -0.0, 1.88, 2.91, 2.63, 2.5, 5.16, 8.91, 11.23, 11.9, 13.8, 14.47, 13.51, 11.45, 3.82, 0.61, 1.61, 2.4, 2.24, 2.68, 2.4, 2.5, 1.86, 1.7, 1.6, 0.95, 2.12, 3.51, 4.41, 4.43, 4.47, 4.43, 4.43, 5.24, 5.24, 5.09, 5.09, 5.09, 5.09, 5.09, 5.09, 5.24, 5.24, 5.24, 4.8, 4.88, 4.88, 4.88, 4.92, 4.47, 4.47, 4.47, 4.47, 4.92, 4.89, 4.89, 4.89, 4.89, 4.88, 4.88, 4.88, 4.89, 4.89, 4.89, 4.88, 4.88, 4.88, 4.92, 4.92, 4.92, 5.36, 5.36, 5.81, 5.81, 5.81, 5.36, 4.47, 3.53, 4.57, 4.66, 5.33, 4.47, 4.02, 4.02, 3.58, 3.58, 3.58, 3.13, 2.68, 2.24, 1.79, 1.34, 0.63, 1.2, 1.2, 0.45, -0.63, -0.57, -1.24, -0.8, 1.2, 3.58, 5.73, 2.86, 1.9, 6.21, 13.41, 16.82, 16.63, 15.12, 12.52, 10.87, 9.33, 3.14, 0.95, 1.7, 2.68, 3.7, 4.4, 4.9, 4.66, 3.07, 1.86, 1.26, 1.7, 3.07, 4.87, 4.47, 4.47, 4.88, 4.88, 5.09, 5.09, 5.09, 5.09, 5.09, 5.09, 5.09, 5.09, 5.09, 5.24, 5.24, 4.8, 4.8, 4.89, 4.89, 4.88, 4.92, 4.92, 4.92, 4.92, 4.92, 4.89, 4.89, 4.89, 4.89, 4.88, 4.88, 4.44, 5.29, 4.44, 4.44, 3.98, 3.98, 4.47, 4.47, 4.47, 4.47, 4.92, 5.36, 5.36, 5.81, 5.81, 5.36, 4.92, 4.44, 4.6, 5.09, 5.33, 4.92, 4.47, 4.47, 4.02, 4.02, 3.58, 3.58, 2.68, 2.68, 2.24, 2.24, 2.12, 1.2, 0.89, 0.0, 0.45, -0.6, -0.57, -0.95, 0.0, 3.2, 6.36, 2.17, 0.0, 0.95, 10.28, 20.12, 21.82, 14.11, 7.02, 7.07, 10.38, 9.46, 3.53, 2.4, 3.7, 4.66, 5.4, 6.6, 6.56, 6.0, 3.6, 2.6, 2.12, 3.07, 5.16, 5.32, 4.47, 4.43, 4.43, 5.09, 5.09, 5.09, 5.09, 5.09, 5.09, 5.09, 5.09, 5.09, 5.24, 5.24, 5.24, 4.8, 4.8, 4.89, 4.89, 4.92, 4.92, 4.92, 4.92, 4.92, 4.92, 4.89, 4.89, 4.89, 4.88, 4.88, 4.34, 4.34, 4.85, 3.97, 3.53, 3.58, 3.58, 4.02, 4.02, 4.47, 4.47, 4.92, 4.92, 5.36, 5.36, 5.36, 5.36, 4.92, 4.88, 4.92, 5.36, 5.36, 5.36, 4.92, 4.92, 4.47, 4.47, 4.02, 4.02, 3.58, 2.68, 2.68, 2.24, 1.79, 0.45, 0.89, -0.0, -0.0, -0.0, -0.6, 0.0, 1.86, 3.04, 2.4, 0.57, 0.63, 7.03, 19.4, 25.81, 10.52, 0.0, 0.99, 6.58, 10.19, 7.6, 5.77, 6.11, 6.04, 6.79, 7.31, 7.6, 7.6, 5.34, 3.74, 3.04, 3.51, 4.43, 6.22, 5.31, 4.02, 4.02, 5.24, 5.24, 5.09, 5.09, 5.09, 5.09, 5.09, 5.09, 5.09, 5.09, 5.24, 5.24, 5.24, 4.8, 4.89, 4.89, 4.89, 4.92, 4.92, 4.92, 4.92, 4.92, 4.89, 4.89, 4.89, 4.88, 4.88, 4.34, 4.34, 4.43, 3.53, 3.58, 3.58, 3.58, 3.58, 4.02, 4.02, 4.47, 4.47, 4.92, 4.92, 4.92, 5.36, 4.92, 4.92, 4.92, 4.92, 5.36, 5.36, 5.36, 5.36, 4.92, 4.92, 4.47, 4.47, 4.47, 4.02, 4.02, 2.68, 2.68, 0.89, 0.45, 0.95, 1.58, -0.0, -0.0, -0.6, -0.63, 0.0, 0.89, 1.24, 1.49, 3.58, 8.68, 16.85, 24.01, 16.07, 3.07, 1.79, 4.92, 8.91, 8.47, 7.6, 7.12, 7.33, 6.6, 7.48, 7.6, 8.48, 7.28, 5.16, 4.66, 4.43, 5.36, 6.26, 7.12, 5.32, 5.32, 5.24, 5.24, 5.09, 5.09, 5.09, 5.09, 5.09, 5.09, 5.09, 5.09, 5.24, 5.24, 5.24, 5.24, 5.24, 4.89, 4.89, 4.92, 4.92, 5.36, 4.92, 4.92, 4.92, 4.92, 4.88, 4.88, 4.44, 4.44, 4.43, 3.98, 3.98, 3.58, 3.58, 3.58, 3.58, 3.58, 4.02, 4.02, 4.47, 4.47, 4.47, 4.92, 4.92, 4.89, 4.89, 4.92, 4.92, 5.36, 5.36, 5.36, 5.36, 4.92, 4.92, 4.92, 4.92, 4.47, 4.47, 4.02, 4.02, 3.13, 2.24, 0.89, 0.95, 1.58, 1.58, -0.0, -0.45, -0.89, -0.89, -0.0, -0.0, 2.53, 7.6, 11.45, 14.68, 17.81, 18.82, 16.54, 13.67, 12.07, 11.28, 9.18, 5.64, 3.97, 5.6, 6.51, 7.31, 8.91, 8.19, 7.76, 6.85, 6.07, 6.51, 6.22, 6.26, 6.71, 6.67, 6.67, 5.24, 5.24, 5.09, 5.09, 5.09, 5.09, 5.09, 5.09, 5.09, 5.09, 5.24, 5.24, 5.24, 5.24, 5.24, 5.33, 5.33, 5.36, 5.36, 5.36, 5.36, 4.92, 4.92, 4.92, 4.92, 4.44, 4.44, 4.44, 3.98, 3.98, 3.53, 3.58, 3.58, 3.58, 3.58, 3.58, 3.58, 4.02, 4.02, 4.47, 4.47, 4.47, 4.44, 4.88, 4.89, 4.89, 4.92, 5.36, 5.36, 5.33, 4.92, 4.92, 4.47, 4.47, 4.92, 4.47, 4.44, 4.47, 4.02, 3.58, 3.13, 2.24, 0.89, 0.63, 0.63, 1.26, 0.0, -0.45, -0.89, -0.63, -0.0, 1.24, 6.36, 11.18, 13.32, 13.39, 15.12, 17.91, 20.43, 21.0, 16.44, 7.73, 2.17, 1.86, 3.07, 6.54, 7.76, 7.92, 7.92, 7.92, 7.92, 7.45, 7.89, 8.01, 7.6, 7.6, 6.71, 6.71, 5.24, 5.24, 5.09, 5.09, 5.09, 5.09, 5.09, 5.09, 5.09, 5.09, 5.24, 5.24, 5.24, 5.24, 5.24, 5.33, 5.33, 5.33, 5.36, 5.36, 5.36, 4.92, 4.92, 4.92, 4.92, 4.44, 4.44, 4.43, 3.98, 3.98, 3.58, 3.58, 3.58, 3.58, 3.58, 3.58, 3.58, 3.58, 4.02, 4.02, 4.02, 4.02, 3.98, 4.85, 4.77, 4.89, 5.36, 5.36, 5.33, 5.33, 4.89, 4.44, 4.44, 4.44, 4.44, 4.44, 4.44, 4.43, 4.02, 3.58, 3.13, 2.68, 1.34, 0.63, 0.63, 1.79, 0.45, -0.0, -0.0, -0.0, -0.0, -0.0, 3.48, 12.31, 14.3, 13.21, 12.3, 15.93, 21.21, 23.05, 17.3, 6.67, 1.79, 1.7, 2.91, 5.2, 7.12, 7.12, 7.56, 7.57, 8.01, 8.01, 8.01, 8.46, 8.49, 8.49, 8.05, 7.6, 5.24, 5.24, 5.09, 5.09, 5.09, 5.09, 5.09, 5.09, 5.09, 5.09, 5.24, 5.24, 5.24, 5.24, 5.24, 5.33, 5.33, 5.33, 5.36, 5.36, 5.36, 4.92, 4.92, 4.92, 4.92, 4.47, 4.47, 4.02, 4.02, 3.58, 3.58, 3.13, 3.13, 3.13, 3.13, 3.13, 3.58, 3.58, 3.58, 4.02, 4.02, 3.58, 3.58, 3.9, 4.34, 5.33, 5.36, 5.33, 4.89, 4.89, 4.88, 4.44, 4.44, 4.44, 4.44, 4.44, 4.44, 3.98, 3.53, 3.58, 3.13, 2.68, 1.79, 0.89, 0.89, 1.79, 1.34, 0.45, -0.0, -0.0, -0.0, -0.0, 2.23, 11.52, 16.99, 14.29, 11.87, 14.42, 18.59, 19.2, 13.86, 8.38, 4.43, 3.13, 2.68, 4.43, 6.22, 6.66, 6.66, 7.12, 7.56, 7.6, 8.05, 8.94, 8.94, 8.94, 8.94, 8.05, 5.09, 5.09, 5.09, 5.09, 5.09, 5.09, 5.09, 5.09, 5.09, 5.09, 5.24, 5.24, 5.24, 5.24, 5.24, 5.33, 5.33, 5.33, 5.36, 5.36, 5.36, 5.36, 4.92, 4.92, 4.92, 4.47, 4.47, 4.02, 4.02, 3.58, 3.58, 3.13, 3.13, 3.13, 3.13, 3.13, 3.13, 3.58, 3.58, 3.58, 3.58, 3.58, 3.13, 2.68, 4.02, 5.36, 5.78, 4.89, 4.88, 4.44, 4.44, 4.44, 4.44, 4.44, 4.44, 4.44, 4.43, 3.98, 3.53, 3.53, 3.09, 2.63, 2.24, 1.79, 2.24, 2.24, 0.89, 0.45, -0.0, -0.0, -0.0, -0.0, 1.79, 8.49, 15.05, 15.34, 14.3, 14.21, 15.1, 12.18, 7.12, 5.2, 6.11, 3.97, 3.13, 4.02, 5.81, 6.26, 6.26, 6.71, 7.15, 7.6, 8.05, 8.94, 8.94, 8.91, 8.47, 8.94, 5.09, 5.09, 5.09, 5.09, 5.09, 5.09, 5.09, 5.09, 5.09, 5.24, 5.24, 5.24, 5.24, 5.24, 5.24, 5.33, 5.33, 5.33, 5.33, 5.36, 5.36, 5.36, 4.92, 4.92, 4.92, 4.47, 4.47, 4.02, 4.02, 3.58, 3.58, 3.13, 3.13, 3.13, 3.13, 3.13, 3.13, 3.13, 3.58, 3.58, 3.58, 3.58, 3.58, 3.07, 3.39, 4.66, 5.33, 4.88, 4.47, 4.47, 4.44, 4.44, 4.44, 4.34, 4.3, 4.3, 3.98, 3.97, 3.53, 3.53, 3.07, 2.63, 2.24, 2.24, 2.24, 2.24, 1.34, 1.34, -0.0, -0.0, -0.0, 0.0, 1.26, 3.04, 8.49, 15.04, 18.82, 18.33, 12.3, 3.32, 1.79, 2.91, 4.3, 5.2, 4.43, 4.02, 4.92, 6.26, 6.71, 7.15, 7.6, 7.6, 8.01, 8.91, 8.91, 8.9, 8.46, 8.46, 5.09, 5.09, 5.09, 5.09, 5.09, 5.09, 5.09, 5.09, 5.24, 5.24, 5.24, 5.24, 5.24, 5.24, 5.24, 5.33, 5.33, 5.33, 5.33, 5.36, 5.36, 5.36, 5.36, 4.92, 4.92, 4.92, 4.47, 4.02, 4.02, 3.58, 3.58, 3.13, 3.13, 2.68, 2.68, 2.68, 2.68, 3.13, 3.13, 3.58, 3.58, 3.58, 3.58, 3.98, 4.3, 4.6, 4.89, 4.92, 4.47, 4.47, 4.47, 4.44, 4.44, 4.34, 4.3, 3.87, 3.98, 3.53, 3.53, 3.53, 3.09, 3.07, 2.17, 2.24, 2.24, 2.24, 2.24, 1.34, -0.0, -0.0, -0.0, 0.0, 0.8, 2.15, 3.6, 10.68, 17.86, 22.57, 16.37, 4.02, 2.12, 3.39, 7.01, 8.46, 7.6, 6.71, 6.26, 7.15, 8.05, 8.46, 8.38, 8.82, 8.82, 8.82, 8.8, 8.8, 8.8, 8.8, 5.09, 5.09, 5.09, 5.09, 5.09, 5.09, 5.09, 5.24, 5.24, 5.24, 5.24, 5.24, 5.24, 5.24, 5.24, 5.33, 5.33, 5.33, 5.33, 5.33, 5.36, 5.36, 5.36, 4.92, 4.92, 4.92, 4.47, 4.02, 4.02, 3.58, 3.13, 3.13, 2.68, 2.68, 2.68, 2.68, 2.68, 3.13, 3.13, 3.13, 3.58, 3.58, 3.98, 3.98, 4.3, 4.77, 4.89, 4.92, 4.92, 4.92, 4.88, 4.88, 4.44, 4.34, 4.3, 3.87, 3.53, 3.53, 3.53, 3.53, 3.09, 2.91, 2.4, 2.4, 2.68, 2.24, 1.79, -0.0, -0.0, -0.0, -0.0, 0.0, 0.71, 2.5, 4.12, 6.64, 11.98, 18.17, 20.01, 16.44, 12.29, 11.57, 12.79, 11.62, 10.26, 8.84, 8.38, 8.82, 9.15, 9.58, 9.58, 9.4, 8.91, 8.91, 8.91, 8.4, 8.4, 8.4, 5.09, 5.09, 5.09, 5.09, 5.09, 5.09, 5.24, 5.24, 5.24, 4.8, 4.8, 4.8, 5.24, 5.24, 5.24, 5.33, 5.33, 5.33, 5.33, 5.33, 5.33, 5.36, 5.36, 4.92, 4.92, 4.92, 4.47, 4.47, 4.02, 3.58, 3.13, 3.13, 2.68, 2.68, 2.68, 2.68, 2.68, 2.68, 3.13, 3.13, 3.58, 3.53, 3.98, 3.98, 4.44, 4.77, 4.89, 4.89, 4.89, 4.89, 4.89, 4.88, 4.77, 4.34, 4.3, 3.39, 3.53, 3.53, 3.09, 3.53, 3.39, 2.91, 2.91, 2.4, 2.4, 2.24, 1.79, -0.0, -0.0, -0.0, 0.0, 0.0, 0.71, 2.21, 3.45, 3.32, 5.36, 10.93, 15.77, 16.72, 16.71, 18.4, 18.59, 14.69, 9.15, 7.33, 8.25, 9.18, 10.1, 9.6, 9.96, 8.55, 8.8, 9.2, 9.08, 8.55, 8.55, 8.55, 5.09, 5.09, 5.09, 5.09, 5.09, 5.24, 5.24, 5.24, 5.24, 4.8, 4.8, 4.8, 5.24, 5.24, 5.24, 5.33, 5.33, 5.33, 5.33, 5.33, 5.33, 5.33, 5.36, 4.92, 4.92, 4.92, 4.47, 4.47, 4.02, 3.58, 3.13, 3.13, 2.68, 2.68, 2.24, 2.68, 2.68, 2.68, 3.13, 3.07, 3.53, 3.53, 3.98, 3.87, 4.34, 4.34, 4.88, 4.88, 4.89, 4.89, 4.8, 4.77, 4.77, 4.34, 4.3, 3.39, 3.53, 3.07, 3.07, 3.53, 3.39, 3.39, 3.2, 2.68, 2.4, 2.24, 1.79, 0.45, -0.0, -0.0, 0.0, 0.0, 0.8, 1.58, 2.17, 1.79, 2.8, 6.94, 9.65, 10.18, 12.64, 19.08, 22.47, 17.88, 10.19, 5.31, 6.32, 9.19, 10.48, 11.38, 9.38, 7.69, 8.3, 8.67, 8.3, 8.63, 8.63, 8.63, 5.09, 5.09, 5.09, 5.09, 5.24, 5.24, 5.24, 5.24, 4.8, 4.8, 4.8, 4.8, 5.24, 5.24, 5.33, 5.33, 5.33, 5.33, 5.33, 5.33, 5.33, 5.33, 5.36, 5.36, 4.92, 4.92, 4.47, 4.47, 4.02, 3.58, 3.13, 2.68, 2.68, 2.68, 2.24, 2.24, 2.68, 2.68, 3.07, 3.07, 3.53, 3.39, 3.87, 4.3, 4.34, 4.44, 4.44, 4.44, 4.88, 4.77, 4.8, 4.77, 4.77, 4.34, 3.87, 3.39, 3.53, 3.07, 3.07, 3.53, 3.39, 3.39, 3.2, 3.07, 2.15, 2.24, 1.79, 1.79, 0.89, 0.0, 0.0, 0.0, 0.0, 0.63, 0.89, 1.26, 2.21, 4.46, 5.59, 5.38, 8.46, 16.69, 21.75, 20.88, 17.07, 10.71, 6.98, 7.55, 9.27, 8.03, 7.68, 7.68, 7.68, 7.68, 7.33, 7.33, 7.33, 7.33, 5.24, 5.24, 5.24, 5.24, 5.24, 5.24, 5.24, 5.24, 4.8, 4.8, 4.8, 4.8, 5.24, 4.8, 4.89, 5.33, 5.33, 5.33, 5.33, 5.33, 5.33, 5.33, 5.36, 5.36, 4.92, 4.92, 4.47, 4.47, 4.02, 3.58, 3.13, 2.68, 2.68, 2.68, 2.24, 2.24, 2.68, 2.6, 3.07, 2.91, 3.39, 3.82, 3.87, 3.87, 3.87, 3.98, 4.44, 4.44, 4.44, 4.77, 4.77, 4.77, 4.34, 4.3, 3.87, 3.39, 3.39, 3.09, 3.09, 3.39, 3.39, 3.82, 3.6, 3.07, 2.15, 2.4, 2.24, 1.79, 0.89, 0.0, -0.45, -0.63, 0.0, 0.0, -0.0, 0.99, 1.4, 2.0, 2.9, 3.91, 7.02, 12.86, 17.32, 19.48, 21.35, 18.51, 10.26, 5.31, 6.58, 6.28, 5.94, 6.01, 6.01, 6.32, 6.68, 6.06, 6.06, 6.06, 5.24, 5.24, 5.24, 5.24, 5.24, 5.24, 5.24, 5.24, 4.8, 4.8, 4.8, 4.8, 4.8, 4.89, 4.89, 5.33, 5.33, 5.33, 5.33, 5.33, 5.33, 5.33, 5.36, 5.36, 4.92, 4.92, 4.47, 4.47, 4.02, 3.58, 3.13, 2.68, 2.68, 2.68, 2.24, 2.68, 2.6, 2.63, 2.91, 3.32, 3.39, 3.82, 3.87, 3.87, 3.98, 3.98, 3.98, 4.44, 4.34, 4.77, 4.77, 4.77, 4.34, 4.3, 3.82, 3.39, 3.39, 3.39, 3.39, 3.39, 3.82, 3.6, 3.6, 3.07, 2.5, 1.26, 1.2, 0.89, 0.89, 0.45, 0.0, 0.45, -0.89, -0.45, -0.0, 0.57, 0.65, 0.59, 1.41, 3.11, 5.37, 8.32, 11.52, 16.74, 20.39, 21.13, 4.0, 1.26, 3.26, 5.37, 5.06, 3.72, 3.43, 4.43, 2.79, 1.88, 1.88, 1.88, 5.24, 5.24, 5.24, 5.24, 5.24, 5.24, 5.24, 5.24, 4.8, 4.8, 4.8, 4.8, 4.89, 4.89, 4.89, 4.89, 5.33, 5.33, 5.33, 4.89, 4.89, 5.33, 5.36, 5.36, 4.92, 4.92, 4.47, 4.47, 4.02, 3.58, 3.13, 2.68, 2.68, 2.68, 2.68, 2.6, 2.6, 2.91, 2.91, 3.2, 3.6, 3.6, 3.82, 3.53, 3.54, 3.98, 3.98, 4.43, 4.34, 4.34, 4.34, 4.34, 4.3, 3.87, 3.82, 3.39, 3.39, 3.39, 3.39, 3.82, 3.7, 3.7, 3.6, 3.6, 2.5, 1.26, 0.6, 0.63, 0.45, 0.45, 0.0, 0.45, 0.0, -0.89, -0.45, -0.0, -0.0, -0.0, 0.7, 2.07, 4.11, 5.06, 7.02, 13.35, 19.8, 17.31, 5.81, 0.0, 0.0, 2.48, 5.31, 3.78, 2.53, 1.9, 0.6, 0.0, 0.0, 0.0, 5.24, 5.24, 5.24, 5.24, 5.24, 5.24, 5.24, 5.24, 4.8, 4.8, 4.89, 4.88, 4.88, 4.89, 4.89, 4.89, 4.89, 4.89, 4.89, 4.89, 4.89, 4.89, 5.36, 5.36, 4.92, 4.92, 4.47, 4.47, 4.02, 3.58, 3.13, 2.68, 2.68, 2.68, 2.6, 2.6, 2.91, 2.91, 3.07, 3.2, 3.6, 3.82, 3.39, 3.53, 3.53, 3.98, 3.98, 3.87, 4.3, 4.34, 4.3, 4.3, 3.87, 3.82, 3.39, 3.39, 3.39, 3.39, 3.6, 3.7, 4.11, 4.11, 3.88, 3.35, 2.5, 0.99, 0.8, 0.0, 0.0, 0.0, 0.45, 0.0, 0.45, 0.45, -0.89, -0.63, -0.0, -0.0, 0.65, 1.88, 2.53, 3.48, 5.09, 11.4, 22.35, 18.78, 7.15, -1.61, -2.48, 0.51, 3.72, 4.46, 1.88, 0.57, 0.45, -0.45, -0.45, -0.45, 5.24, 5.24, 5.24, 5.24, 5.24, 5.24, 5.24, 4.8, 4.8, 4.89, 4.88, 4.88, 4.88, 4.89, 4.89, 4.89, 4.89, 4.89, 4.89, 4.89, 4.89, 4.89, 4.92, 4.92, 4.92, 4.92, 4.47, 4.02, 4.02, 3.58, 3.13, 2.68, 2.68, 2.6, 2.6, 2.4, 2.91, 3.07, 3.2, 3.6, 3.6, 3.39, 3.53, 3.53, 3.53, 3.98, 3.98, 3.87, 4.3, 4.3, 4.3, 3.87, 3.87, 3.82, 3.39, 3.2, 3.2, 3.6, 3.7, 4.11, 3.88, 4.27, 3.88, 3.72, 2.5, 0.99, 0.57, 0.0, 0.0, 0.0, -0.57, 0.0, 0.6, 1.2, 0.45, -0.45, -0.0, -0.0, 1.24, 1.86, 2.15, 2.79, 5.34, 19.67, 22.79, 19.66, 8.49, -1.26, -3.14, 0.0, 2.79, 3.72, 1.61, 0.0, 0.0, -0.89, -0.89, -0.89, 5.24, 5.24, 5.24, 5.24, 5.24, 5.24, 5.24, 4.89, 4.89, 4.88, 4.88, 4.88, 4.88, 4.88, 4.89, 4.89, 4.89, 4.89, 4.89, 4.89, 4.89, 4.89, 4.92, 4.92, 4.92, 4.92, 4.47, 4.02, 4.02, 3.58, 3.13, 3.13, 2.63, 2.6, 2.4, 2.91, 2.68, 3.07, 3.6, 3.6, 3.39, 3.39, 3.53, 3.53, 3.53, 3.98, 3.87, 3.87, 4.3, 4.3, 3.87, 3.82, 3.39, 3.39, 3.2, 3.2, 3.6, 3.6, 3.88, 3.88, 4.27, 4.0, 4.0, 3.43, 2.44, 1.58, 0.57, 0.54, 0.0, 0.0, 0.0, 0.0, 0.0, 0.57, 0.0, 0.45, -0.0, 0.63, 1.7, 2.12, 1.86, 2.8, 11.98, 19.16, 22.3, 18.76, 6.26, -0.95, -1.88, 0.0, 2.53, 2.53, 0.0, -1.2, -1.26, -2.24, -2.24, -2.24, 5.24, 5.24, 5.24, 5.24, 5.24, 5.33, 4.89, 4.89, 4.88, 4.88, 4.88, 4.88, 4.88, 4.88, 4.88, 4.88, 4.88, 4.88, 4.88, 4.89, 4.89, 4.89, 4.92, 4.92, 4.92, 4.92, 4.47, 4.02, 4.02, 3.58, 3.13, 3.13, 2.63, 2.63, 2.91, 2.91, 3.07, 3.2, 3.6, 3.39, 3.39, 3.53, 3.53, 3.53, 3.53, 3.98, 3.87, 3.87, 3.87, 3.7, 3.7, 3.6, 3.2, 3.2, 3.2, 3.6, 3.6, 3.35, 3.88, 4.0, 4.0, 4.37, 4.0, 4.0, 2.84, 1.61, 1.24, 0.0, 0.0, 0.0, 0.0, 0.0, 0.0, 0.0, 0.0, -0.6, -0.63, 0.63, 1.7, 1.79, 1.79, 2.24, 9.72, 16.25, 21.07, 16.25, 1.86, -3.07, -1.88, 0.0, 1.16, 0.57, -1.26, -2.4, -2.6, -3.13, -3.13, -3.13, 5.24, 5.24, 5.24, 5.24, 5.33, 5.33, 4.89, 4.88, 4.88, 4.88, 4.88, 4.88, 4.88, 4.88, 4.88, 4.88, 4.88, 4.88, 4.88, 4.88, 4.89, 4.92, 4.92, 4.92, 4.92, 4.92, 4.47, 4.02, 4.02, 3.58, 3.13, 3.07, 3.07, 2.91, 2.91, 3.07, 3.2, 3.2, 3.39, 3.39, 3.53, 3.53, 3.53, 3.53, 3.53, 3.87, 3.87, 3.87, 3.7, 3.7, 3.6, 3.2, 3.2, 3.2, 3.2, 3.6, 3.35, 3.72, 4.0, 4.0, 4.07, 4.07, 4.07, 3.73, 3.16, 2.23, 1.2, 0.54, 0.0, 0.54, 0.57, 0.0, 0.0, -0.57, -0.6, -0.63, 0.0, 0.0, 1.24, 1.24, 1.26, 3.07, 6.26, 12.94, 18.63, 16.37, 1.26, -4.47, -2.63, -1.86, -2.4, -2.68, -2.24, -2.24, -2.68, -3.13, -3.13, -3.13, 5.24, 5.24, 5.24, 5.33, 5.33, 4.89, 4.89, 4.88, 4.88, 4.88, 4.88, 4.88, 4.88, 4.44, 4.44, 4.88, 4.88, 4.88, 4.88, 4.88, 4.88, 4.92, 4.92, 4.92, 4.92, 4.92, 4.47, 4.02, 4.02, 3.58, 3.13, 3.07, 3.07, 2.91, 3.32, 3.2, 3.2, 3.39, 3.39, 3.39, 3.53, 3.53, 3.53, 3.39, 3.39, 3.87, 3.87, 3.87, 3.7, 3.6, 3.6, 3.2, 3.2, 3.2, 3.6, 3.35, 3.72, 3.64, 4.0, 4.07, 4.07, 4.07, 4.07, 4.07, 3.48, 2.86, 1.84, 1.16, 0.51, 0.0, 0.0, 0.0, -0.57, -1.26, -0.95, 0.0, 0.0, 0.0, 0.65, 0.65, 1.2, 2.21, 4.4, 10.02, 16.09, 17.86, 4.47, -3.07, -3.82, -3.39, -4.47, -4.47, -2.68, -1.79, -2.24, -2.68, -2.68, -2.68, 5.24, 5.24, 5.33, 5.33, 4.89, 4.89, 4.88, 4.88, 4.88, 4.88, 4.88, 4.44, 4.44, 4.44, 4.44, 4.44, 4.44, 4.44, 4.44, 4.88, 4.88, 4.92, 4.92, 4.92, 4.92, 4.47, 4.47, 4.02, 4.02, 3.58, 3.53, 3.09, 3.32, 3.32, 3.2, 3.2, 3.39, 3.39, 2.97, 2.97, 3.53, 3.53, 3.39, 3.39, 3.39, 3.87, 3.87, 3.7, 3.7, 3.6, 3.6, 3.2, 3.2, 3.6, 3.35, 3.72, 3.43, 4.0, 3.73, 4.07, 4.07, 4.07, 3.79, 3.49, 3.2, 2.86, 2.48, 1.8, 1.13, 0.0, 0.0, 0.0, -0.54, -1.24, -0.71, 0.0, 0.0, 0.0, 0.0, 0.53, 0.61, 1.84, 3.48, 8.55, 13.96, 18.26, 12.94, 0.45, -3.82, -4.0, -4.43, -4.47, -3.13, -2.24, -2.68, -2.68, -2.68, -2.68, 5.33, 5.33, 5.33, 4.89, 4.89, 4.88, 4.88, 4.92, 4.92, 4.92, 4.44, 4.44, 4.44, 4.44, 4.44, 4.44, 4.44, 4.44, 4.44, 4.44, 4.47, 4.47, 4.92, 4.92, 4.92, 4.47, 4.47, 4.02, 4.02, 3.53, 3.53, 3.39, 3.39, 3.39, 3.6, 3.39, 3.39, 3.39, 2.97, 3.39, 3.39, 3.39, 3.39, 3.39, 3.39, 3.82, 3.87, 3.7, 3.6, 3.6, 3.6, 3.2, 3.6, 3.35, 3.35, 3.43, 3.78, 3.73, 4.07, 4.07, 4.07, 3.79, 3.79, 3.49, 3.49, 3.49, 2.86, 2.22, 1.76, 1.08, 0.61, 0.0, -0.53, -0.54, -0.54, 0.0, 0.0, 0.0, 0.0, 0.0, 0.0, 1.33, 3.79, 8.24, 13.07, 16.69, 16.92, 8.38, 0.0, -3.51, -3.97, -4.47, -4.02, -3.13, -2.63, -2.68, -2.68, -2.68, 5.33, 5.33, 5.33, 4.89, 4.89, 4.88, 4.92, 4.92, 4.92, 4.47, 4.44, 4.44, 4.44, 4.44, 4.44, 4.44, 4.44, 4.44, 4.44, 4.47, 4.47, 4.47, 4.47, 4.47, 4.47, 4.47, 4.47, 4.02, 4.02, 3.53, 3.53, 3.39, 3.39, 3.6, 3.82, 3.39, 3.39, 2.97, 3.39, 3.39, 3.39, 3.39, 3.39, 3.39, 3.39, 3.82, 3.6, 3.6, 3.6, 3.6, 3.6, 3.6, 3.35, 3.35, 3.43, 3.43, 4.0, 3.73, 4.07, 4.07, 4.07, 3.79, 3.49, 3.49, 3.49, 3.49, 3.12, 2.61, 2.2, 1.73, 1.19, 0.0, 0.0, 0.0, 0.0, 0.0, -0.54, -0.57, -0.71, 0.0, 0.0, 1.33, 3.72, 7.67, 12.14, 15.61, 16.47, 14.29, 6.67, 0.0, -3.13, -3.58, -3.58, -3.07, -3.07, -2.24, -2.24, -2.24, 5.33, 5.33, 4.89, 4.89, 4.88, 4.92, 4.92, 4.92, 4.92, 4.47, 4.47, 4.44, 4.44, 4.44, 4.44, 4.44, 4.44, 4.47, 4.47, 4.47, 4.47, 4.47, 4.47, 4.47, 4.47, 4.47, 4.47, 4.02, 3.98, 3.98, 3.82, 3.82, 3.82, 3.6, 3.39, 3.39, 3.39, 3.39, 3.39, 3.39, 3.39, 3.39, 3.39, 3.39, 3.39, 3.82, 3.6, 3.6, 3.6, 3.6, 3.35, 3.35, 3.35, 3.72, 3.43, 3.78, 3.73, 3.73, 3.73, 4.07, 4.07, 3.79, 3.49, 3.49, 3.49, 3.49, 3.22, 2.84, 2.4, 2.2, 1.73, 1.19, 1.13, 0.0, 0.0, -0.63, -0.57, -0.99, -0.71, 0.0, 0.59, 1.8, 3.72, 7.07, 11.21, 14.44, 15.57, 14.75, 12.96, 7.6, 2.24, 0.45, -1.2, -1.7, -1.7, -0.89, -0.89, -0.89, 5.33, 5.33, 4.89, 4.89, 4.88, 4.92, 4.92, 4.92, 4.92, 4.47, 4.47, 4.44, 4.44, 4.44, 4.44, 4.44, 4.44, 4.47, 4.47, 4.47, 4.47, 4.47, 4.47, 4.47, 4.47, 4.47, 4.47, 4.02, 3.98, 3.98, 3.82, 3.82, 3.82, 3.6, 3.39, 3.39, 3.39, 3.39, 3.39, 3.39, 3.39, 3.39, 3.39, 3.39, 3.39, 3.82, 3.6, 3.6, 3.6, 3.6, 3.35, 3.35, 3.35, 3.72, 3.43, 3.78, 3.73, 3.73, 3.73, 4.07, 4.07, 3.79, 3.49, 3.49, 3.49, 3.49, 3.22, 2.84, 2.4, 2.2, 1.73, 1.19, 1.13, 0.0, 0.0, -0.63, -0.71, -0.99, -0.71, 0.0, 0.59, 1.8, 3.72, 6.44, 9.74, 12.62, 14.67, 14.73, 13.86, 12.49, 8.94, 4.02, 2.68, 1.7, 1.2, 0.89, 0.89, 0.89]}, {"header": {"dx": 0.06612293990616946, "dy": 0.0552356325346848, "nx": 98, "ny": 59, "la1": 35.046912555036876, "la2": 31.78801023549047, "lo1": -121.43107172385933, "lo2": -114.95102361305473, "refTime": "2026041009", "parameterCategory": 1, "parameterNumber": 3}, "data": [0.53, 1.2, 1.61, 2.15, 2.4, 2.63, 3.13, 2.91, 3.07, 2.91, 2.6, 1.79, 2.24, 1.79, 1.6, 1.26, 1.26, 0.63, 1.2, 2.24, 2.68, 3.47, 3.45, 2.84, 2.15, 1.88, 2.21, 1.86, 1.79, 1.34, 1.2, 0.6, -0.0, -0.0, -0.0, -0.0, 0.0, 0.0, 0.0, 0.45, -0.0, 0.0, -0.63, -1.49, -2.2, -2.9, -3.8, -3.88, -3.15, 0.0, 3.72, 5.43, 6.01, 6.32, 6.32, 6.32, 6.24, 6.24, 5.38, 5.38, 4.83, 4.6, 4.0, 3.8, 3.69, 4.46, 4.6, 5.52, 5.3, 4.65, 3.82, 3.91, 3.02, 2.35, 2.4, 2.4, 1.41, 0.0, -0.71, -0.54, -1.2, -1.88, -2.53, -2.5, -3.2, -3.51, -3.58, -3.47, -3.84, -4.83, -5.76, -6.97, -7.12, -7.12, -6.77, -6.33, -5.41, -4.83, 0.65, 1.2, 1.24, 1.86, 2.4, 2.6, 2.68, 3.07, 2.91, 2.91, 2.6, 2.24, 1.79, 1.79, 2.24, 1.79, 0.95, 0.63, 1.2, 2.12, 2.12, 2.68, 3.6, 4.98, 2.84, 1.88, 1.58, 1.2, 0.89, 1.79, 2.24, 2.24, 1.2, -0.0, -0.0, -0.0, 0.0, 0.0, 0.45, 0.89, -0.0, -0.89, -1.86, -2.84, -4.36, -5.21, -4.6, -2.9, 0.0, 3.07, 5.43, 5.69, 5.59, 5.64, 5.69, 6.01, 5.94, 5.86, 5.64, 5.28, 4.71, 4.5, 4.0, 3.91, 3.79, 4.56, 5.49, 5.52, 5.3, 4.65, 4.65, 3.91, 3.02, 2.35, 2.18, 2.31, 1.52, 0.0, -0.71, -0.54, -1.2, -1.88, -2.53, -2.5, -3.2, -3.51, -3.58, -3.47, -3.84, -4.83, -5.76, -6.97, -7.12, -7.12, -6.77, -6.33, -5.41, -4.83, 0.65, 0.54, 1.24, 1.86, 2.0, 2.6, 2.68, 2.68, 2.4, 2.4, 2.6, 2.24, 1.79, 1.34, 1.34, 1.34, 0.89, 0.45, 0.95, 1.6, 1.49, 1.7, 2.68, 3.2, 5.24, 4.46, 2.5, 1.2, 0.63, 1.86, 3.07, 3.58, 3.53, 2.54, 0.95, 0.0, 0.0, 0.0, 0.0, 0.0, -0.89, -2.63, -3.83, -5.43, -6.06, -5.37, -2.2, 0.61, 3.48, 4.74, 4.95, 4.56, 4.56, 5.0, 5.0, 5.3, 5.49, 5.38, 5.28, 4.71, 4.71, 3.88, 4.0, 4.03, 4.74, 5.37, 6.24, 6.31, 6.09, 5.6, 4.81, 3.82, 2.25, 1.6, 0.79, 0.73, 0.75, 0.0, -1.24, -1.16, -1.4, -1.88, -2.53, -2.86, -2.5, -2.8, -3.58, -3.51, -4.84, -6.14, -7.12, -7.9, -8.37, -8.66, -6.87, -5.52, -3.8, -2.9, 0.0, 0.71, 1.24, 1.86, 1.86, 2.17, 2.24, 2.24, 2.6, 2.4, 2.17, 1.79, 1.79, 1.34, 1.34, 1.34, 0.89, 0.0, 0.0, 1.2, 1.6, 1.2, 1.79, 2.24, 3.07, 5.59, 5.09, 2.5, 1.34, 1.9, 2.5, 3.53, 4.02, 3.74, 3.58, 2.15, 1.4, 0.0, -0.6, -0.95, -2.4, -3.45, -5.43, -4.46, -3.48, -1.16, 1.4, 3.79, 4.74, 4.65, 4.29, 4.65, 4.65, 4.65, 5.06, 5.3, 5.21, 5.38, 4.71, 4.71, 3.78, 3.88, 3.91, 4.74, 5.43, 6.06, 6.53, 7.15, 7.73, 7.11, 6.2, 3.87, 2.34, 0.0, 0.0, -0.74, -0.74, 0.0, -1.26, -2.0, -1.84, -1.88, -2.53, -3.16, -2.15, -2.23, -2.24, -3.74, -6.44, -7.73, -8.56, -8.66, -8.46, -5.38, -1.55, 0.0, -0.72, -1.52, 0.0, 0.71, 1.24, 1.86, 1.86, 2.17, 2.17, 2.24, 2.17, 2.12, 1.7, 1.34, 1.34, 1.34, 1.34, 0.0, 0.0, 0.0, 0.0, 0.32, 0.89, 1.34, 1.79, 2.24, 3.07, 3.2, 5.24, 5.59, 2.98, 2.68, 2.23, 2.8, 2.6, 2.63, 2.53, 1.83, 1.83, 0.88, -0.61, -1.9, -2.21, -1.84, -1.84, -0.7, 0.0, 2.07, 3.72, 4.43, 3.9, 3.9, 4.01, 4.36, 4.74, 4.36, 5.37, 5.21, 4.71, 4.6, 4.71, 3.95, 3.21, 3.91, 4.74, 5.46, 7.07, 7.02, 7.35, 6.88, 7.73, 8.05, 6.9, 5.51, 3.47, 1.5, -0.72, -1.94, -2.29, -0.7, -1.2, -2.66, -2.73, -2.53, -2.84, -2.98, -2.98, -2.8, -3.51, -6.44, -8.6, -9.4, -8.66, -8.01, -4.95, 1.2, 2.68, 1.4, 0.0, -1.58, 0.0, 0.57, 1.26, 1.86, 2.12, 2.12, 2.12, 2.24, 1.79, 1.7, 1.2, 0.89, 0.89, 0.0, 0.0, 0.0, 0.0, 0.0, 0.0, 0.0, -0.0, 0.0, 0.89, 1.6, 2.23, 2.23, 2.53, 3.48, 4.43, 4.29, 2.6, 2.24, 2.24, 1.6, 0.65, 0.59, 0.66, 0.69, 0.0, -0.6, -0.63, 0.0, 0.61, 1.49, 2.98, 4.43, 4.74, 4.36, 3.72, 3.07, 3.07, 3.43, 4.01, 3.64, 3.79, 3.91, 3.91, 2.99, 3.61, 3.16, 3.15, 2.98, 5.43, 6.64, 7.67, 8.03, 7.35, 6.64, 6.88, 7.12, 6.9, 6.35, 6.35, 3.91, 0.79, -1.35, -2.53, -1.9, -1.34, -2.79, -4.43, -5.05, -4.46, -4.46, -5.43, -6.71, -8.55, -9.23, -10.12, -9.48, -8.46, -6.64, 0.0, 3.82, 2.68, 0.0, -1.6, -2.97, 0.0, 0.8, 1.26, 1.49, 2.12, 2.12, 2.12, 1.7, 1.79, 1.34, 0.89, 0.89, 0.0, 0.0, 0.0, 0.0, 0.0, -0.95, -1.26, -0.89, -0.89, -0.89, -0.89, 0.0, 0.0, 0.57, 0.71, 0.76, 1.4, 2.53, 4.29, 3.74, 2.8, 1.9, 0.65, 0.0, 0.0, 1.03, 0.87, 0.89, 0.6, 0.45, 0.95, 2.21, 3.16, 4.81, 6.06, 6.06, 4.74, 4.74, 4.43, 2.84, 2.98, 2.88, 3.11, 2.2, 1.52, 1.52, 1.44, 1.47, 2.11, 2.86, 4.4, 6.54, 7.07, 7.68, 6.64, 4.83, 3.91, 4.8, 4.55, 4.61, 4.44, 3.9, 2.3, 0.0, -1.4, -1.7, -1.58, -3.07, -6.28, -7.71, -7.21, -6.79, -8.01, -10.05, -11.44, -10.86, -10.12, -8.85, -6.98, -1.86, 2.6, 3.07, 1.26, -0.7, -3.78, -4.6, 0.6, 0.95, 1.6, 1.7, 1.7, 1.7, 1.7, 1.7, 1.34, 1.34, 0.89, 0.89, 0.0, 0.0, 0.0, 0.0, 0.0, -0.95, -0.8, 0.0, 0.0, 0.0, -0.8, -1.7, -1.49, -0.8, -0.71, 0.0, 0.63, 1.86, 2.21, 2.53, 2.21, 1.4, 0.7, 0.0, 0.0, 0.0, 0.0, 1.26, 0.95, -0.0, -0.0, 0.89, 2.12, 4.57, 7.03, 7.69, 7.02, 6.52, 1.88, 2.15, 2.2, 2.29, 1.47, 0.7, 0.0, 0.0, 0.0, 0.78, 1.33, 2.23, 2.91, 5.43, 5.72, 6.01, 5.86, 3.09, 0.78, 0.73, 1.52, 1.55, 1.53, 0.76, 0.75, 0.7, 0.0, 0.0, -0.59, -3.69, -5.69, -8.38, -8.84, -8.49, -9.29, -10.79, -10.79, -10.58, -9.17, -7.27, -1.9, 1.2, 2.4, 1.79, 0.0, -2.26, -4.6, -4.6, 0.8, 1.26, 1.6, 1.7, 1.7, 1.7, 1.7, 1.6, 1.2, 1.34, 0.89, 0.63, 0.0, 0.0, 0.0, -1.34, -1.34, -0.95, 0.0, 0.0, 0.0, 0.0, 0.0, -1.26, -1.86, -1.86, -1.58, -0.89, 0.0, 0.0, 0.0, 0.0, 0.0, 0.71, 0.61, 0.0, -0.76, -0.87, 0.0, 0.8, 0.0, -0.0, -0.0, -0.0, 1.79, 3.13, 4.82, 6.7, 7.68, 7.02, 6.52, 3.79, 2.98, 2.4, 1.47, 0.73, 0.0, -0.73, 0.0, 0.7, 3.49, 4.24, 3.74, 4.8, 5.46, 6.32, 6.05, 3.15, 0.0, -1.63, -0.74, 0.0, 0.0, 0.0, 0.0, 0.0, 0.0, 0.0, -0.75, -1.39, -3.15, -6.26, -8.05, -9.36, -9.62, -9.86, -9.78, -8.53, -7.55, -4.36, 0.0, 1.79, 1.34, 0.0, -1.16, -3.8, -4.6, -5.28, 1.26, 1.26, 1.6, 1.7, 1.6, 1.6, 1.26, 1.26, 1.2, 0.95, 0.89, 0.0, 0.0, 0.0, 0.0, -1.58, -2.0, -2.54, -1.34, -1.34, -1.34, -1.2, -1.26, -1.58, -2.12, -2.23, -1.7, -1.34, -0.89, -1.24, -1.49, -0.6, 0.0, 0.0, 0.0, 0.0, 0.0, 0.0, 0.0, 0.0, -0.45, -0.32, 0.0, 0.0, 1.34, 2.6, 2.4, 2.86, 5.09, 6.7, 7.69, 7.69, 6.01, 4.65, 2.88, 2.11, 1.41, -0.61, -0.71, 2.4, 6.98, 8.19, 8.37, 6.4, 7.03, 7.02, 7.08, 5.18, 0.72, -2.6, -3.69, -2.82, -2.06, -1.4, -0.71, -1.36, -2.9, -2.99, -2.7, -1.43, -1.38, -3.26, -5.81, -7.12, -7.76, -7.73, -8.18, -7.28, -5.64, -2.51, -0.57, 0.0, -0.6, -1.58, -2.73, -4.5, -5.41, -5.64, 1.26, 1.49, 1.49, 1.49, 1.26, 1.26, 1.26, 1.26, 1.26, 0.95, 0.63, 0.0, 0.0, 0.0, 0.0, -0.85, -2.21, -3.07, -3.6, -3.39, -2.12, -1.86, -1.86, -1.86, -2.8, -1.6, -1.6, -1.6, -1.6, -1.49, -0.71, 0.0, -0.0, -0.0, -0.63, 0.0, 0.0, 0.0, 0.0, 0.0, 0.0, 0.0, 0.0, 1.2, 2.8, 3.07, 3.07, 3.51, 3.82, 5.86, 8.55, 9.27, 9.3, 8.68, 7.68, 7.68, 7.31, 1.84, 0.0, 3.95, 8.94, 10.02, 8.4, 8.19, 9.83, 10.23, 9.9, 8.46, 4.96, 0.0, -2.88, -4.37, -3.46, -2.71, -2.1, -2.63, -3.55, -4.74, -5.21, -4.68, -2.1, -1.36, -1.88, -3.82, -4.73, -5.44, -6.64, -6.0, -4.43, -2.21, -2.5, -2.5, -2.5, -2.86, -4.65, -5.52, -6.2, -5.21, 1.86, 1.86, 1.86, 1.49, 1.26, 1.26, 1.26, 1.26, 1.26, 0.8, 0.6, 0.0, 0.0, 0.0, 0.0, -0.51, -0.51, -1.13, -1.76, -1.23, -0.55, 0.0, 0.0, 0.0, 0.0, 0.0, 0.0, 0.0, 0.0, 0.0, 0.0, 0.0, 0.63, -0.0, -0.45, -0.6, 0.0, 0.0, 0.0, 0.0, 0.63, 1.7, 1.86, 3.2, 4.02, 3.58, 5.36, 6.26, 6.64, 7.08, 7.45, 8.91, 10.15, 10.8, 10.8, 11.2, 11.53, 8.9, 2.21, 3.74, 8.91, 9.72, 8.63, 8.91, 10.7, 11.95, 13.43, 12.52, 10.18, 7.18, 2.9, 0.0, -0.71, -1.52, -2.23, -2.2, -2.53, -3.45, -5.09, -4.67, -2.35, 0.0, -0.61, -2.6, -2.4, -2.53, -4.12, -3.49, -2.5, -1.9, -2.5, -4.0, -4.52, -5.05, -6.01, -6.97, -5.95, -2.84, 1.58, 1.86, 1.86, 1.86, 1.58, 1.26, 1.26, 1.26, 1.26, 0.8, 0.8, 0.0, 0.0, 0.0, 0.0, 0.0, 0.0, -0.55, -0.54, 0.0, 0.0, 0.59, 0.55, 1.09, 1.18, 1.18, 1.18, 1.73, 1.65, 0.55, 0.0, 0.0, 0.0, 0.0, 0.0, 0.45, -0.0, 0.32, -0.0, 0.45, 1.34, 1.7, 2.17, 2.24, 2.68, 3.04, 3.04, 3.04, 3.58, 3.58, 3.58, 3.97, 3.82, 4.73, 5.94, 6.0, 8.8, 11.06, 5.28, 3.58, 8.19, 8.91, 8.9, 9.39, 10.7, 11.18, 12.44, 13.59, 12.52, 11.82, 10.34, 7.63, 4.07, 1.44, 0.0, -0.65, -0.63, -1.7, -2.21, -1.88, -1.49, -0.61, -0.63, -1.2, -1.49, -1.88, -2.41, -1.61, -0.71, -0.54, -1.24, -2.8, -3.82, -6.4, -8.03, -7.73, -5.64, -1.9, 1.9, 1.58, 1.58, 1.24, 1.24, 1.24, 1.24, 1.24, 0.57, 0.57, 0.57, 0.0, 0.0, 0.0, 0.0, 0.0, 0.0, -0.55, -0.59, -0.58, 0.0, 0.0, 0.58, 0.54, 1.14, 1.14, 1.14, 1.78, 1.69, 1.1, 0.0, 0.0, 0.0, 0.0, 0.0, 0.45, 0.45, 0.89, 0.45, 0.45, 0.89, 0.89, 0.89, 2.68, 4.02, 4.24, 2.12, 1.6, 1.6, 1.7, 1.79, 0.89, 0.0, 0.0, 0.0, 0.0, 1.34, 4.4, 5.5, 3.82, 6.54, 7.98, 8.94, 9.33, 8.8, 8.36, 8.49, 9.15, 10.35, 10.24, 11.76, 10.98, 7.69, 4.5, 1.35, 1.9, 2.17, 0.8, 0.0, -0.71, -1.24, -2.41, -2.6, -2.66, -1.86, -1.88, -1.4, -0.65, 0.0, 0.0, 0.0, -1.2, -3.07, -5.43, -7.33, -7.18, -4.83, -1.2, 1.9, 1.9, 1.9, 1.24, 1.24, 1.24, 1.24, 1.24, 0.71, 0.71, 0.71, 0.0, 0.0, 0.0, 0.0, 0.0, 0.0, -0.55, -0.54, 0.0, 0.0, 0.0, 0.0, 0.58, 1.07, 1.14, 1.14, 1.2, 1.12, 1.14, 0.0, -0.55, -1.13, 0.0, 0.0, 1.58, 2.8, 1.26, 1.2, 0.4, 0.0, 0.0, 0.0, 1.79, 2.68, 3.13, 2.8, 2.4, 1.58, 0.63, 0.0, 0.0, -0.89, -0.89, -0.89, -0.8, -1.7, -1.35, 1.41, 5.69, 3.82, 2.6, 3.2, 3.2, 3.2, 3.6, 3.47, 3.58, 5.81, 7.47, 8.46, 7.58, 5.38, 2.31, 1.23, 4.46, 5.69, 4.65, 2.4, 0.0, -1.2, -3.16, -4.11, -4.43, -4.73, -2.84, -1.88, -0.54, -0.54, -0.76, -1.27, -1.27, -2.15, -2.84, -4.43, -2.98, -1.4, -1.4, 1.61, 1.61, 1.61, 1.2, 1.2, 1.0, 1.0, 1.0, 0.54, 0.54, 0.54, 0.54, 0.0, 0.0, 0.0, 0.0, 0.0, 0.0, 0.0, 0.0, 0.0, 0.0, 0.0, 0.0, 0.55, 1.16, 1.14, 1.2, 1.12, 1.2, 0.58, 0.0, -0.57, 0.0, 0.0, 1.2, 2.12, 1.86, 1.6, 0.0, 0.0, 0.0, 0.0, 1.58, 2.68, 3.13, 2.8, 2.68, 1.79, 1.34, 0.0, 0.0, 0.0, 0.0, 0.0, 0.0, -2.68, -2.84, 0.0, 2.53, 2.24, 2.68, 2.8, 2.8, 0.8, 0.8, 1.24, 3.04, 5.51, 6.64, 4.8, 2.18, 0.0, -0.77, 2.15, 6.36, 8.3, 8.27, 6.88, 5.13, 2.9, 0.76, -0.73, -3.07, -5.34, -5.59, -3.83, -2.86, -2.21, -2.84, -2.98, -2.15, -1.2, -2.0, -3.55, -2.48, -1.84, -1.84, 1.88, 1.88, 1.88, 1.2, 1.2, 1.2, 1.2, 1.2, 0.65, 0.65, 0.65, 0.65, 0.0, 0.0, 0.0, 0.0, 0.0, 0.0, 0.0, 0.0, 0.0, 0.0, 0.0, 0.0, 0.56, 0.58, 0.54, 0.57, 0.57, 0.57, 0.57, 0.0, -0.54, -1.41, 0.0, 0.63, 1.2, 0.71, 0.0, 0.0, -1.4, 0.0, 0.0, 0.63, 2.24, 2.68, 2.68, 2.24, 2.24, 2.24, 1.79, 1.34, 1.79, 1.58, 1.58, 0.0, 0.0, 0.0, 2.8, 3.39, 2.8, 1.58, 2.24, 2.24, 1.79, -0.0, -0.0, 1.26, 2.12, 3.35, 1.11, -1.42, -3.04, 0.0, 3.53, 8.19, 10.28, 10.18, 9.02, 7.54, 7.54, 5.99, 3.02, 0.0, -1.9, -3.13, -4.73, -3.82, -4.8, -4.81, -3.43, -1.88, -1.61, -2.73, -3.9, -3.43, -2.53, -2.53, 1.61, 1.61, 1.61, 1.16, 1.16, 1.2, 1.2, 1.2, 0.65, 0.65, 0.65, 0.65, 0.0, 0.0, 0.0, 0.0, 0.0, 0.0, 0.0, 0.0, 0.0, 0.0, 0.0, 0.0, 0.57, 0.56, 0.0, 0.0, 0.0, 0.0, 0.0, 0.0, 0.0, -0.57, -0.61, 0.0, -0.4, -0.71, -0.76, -0.76, -1.49, -0.95, 0.0, 0.0, 1.58, 2.24, 2.24, 2.24, 2.24, 1.58, 2.4, 2.4, 2.4, 2.4, 1.9, 1.4, 2.53, 3.35, 3.2, 2.8, 1.4, 1.4, 1.9, 2.68, 3.82, 1.79, 0.89, -1.2, -3.04, -4.2, -2.21, -1.51, 0.0, 2.07, 4.24, 6.28, 7.68, 7.79, 7.82, 6.2, 5.48, 4.55, 3.14, 0.0, -2.68, -3.07, -4.02, -5.31, -5.86, -5.43, -3.49, -1.88, -2.84, -4.43, -4.36, -2.79, -3.16, -3.16, 1.84, 1.84, 1.6, 1.33, 1.16, 1.16, 1.16, 1.16, 0.61, 0.53, 0.53, 0.53, 0.0, 0.0, 0.0, 0.0, 0.0, 0.0, 0.0, 0.0, 0.0, -0.59, -0.55, 0.0, 0.0, 0.0, 0.0, 0.0, 0.0, 0.0, 0.0, 0.57, 0.58, 0.0, -0.57, -1.13, -1.6, -2.86, -1.6, -1.98, -1.4, -0.71, -0.8, 0.0, 1.2, 1.2, 1.2, 1.9, 1.58, 1.58, 1.9, 2.8, 2.8, 2.8, 3.39, 3.35, 2.53, 2.23, 1.27, 1.27, 0.0, 0.0, 0.0, 1.34, 2.4, 2.4, 1.34, -1.7, -4.09, -5.72, -2.13, 2.37, 4.67, 5.51, 3.95, 1.35, 0.0, 0.72, 1.51, 2.28, 0.76, 0.0, 0.0, -0.67, -1.86, -3.07, -3.13, -3.07, -5.59, -4.73, -3.82, -4.46, -5.09, -5.72, -4.81, -3.48, -2.53, -2.53, 1.8, 1.8, 1.13, 1.13, 1.13, 1.16, 1.16, 1.16, 1.16, 0.61, 0.61, 0.61, 0.61, 0.0, 0.0, 0.0, 0.0, 0.0, 0.0, 0.0, 0.0, -0.63, -1.13, -1.8, -1.83, -0.81, 0.0, 0.0, 0.0, 0.0, 0.53, 1.14, 1.12, 1.14, 0.0, 0.0, -0.55, -1.19, -1.16, -1.16, -0.59, 0.0, 0.0, 0.57, 1.11, 1.27, 1.13, 1.4, 0.0, 0.0, 1.58, 1.9, 2.8, 3.58, 2.12, 2.4, 3.79, 1.2, 0.0, 0.0, 0.0, 0.0, 0.0, 2.24, 1.86, 1.86, 1.7, 0.63, 0.0, 0.0, 3.02, 6.17, 7.17, 4.88, 0.77, -3.19, -6.05, -7.08, -3.07, -1.53, -0.77, -0.77, -1.48, -1.52, -1.7, -1.58, -1.2, 0.0, -2.4, -3.07, -5.31, -6.94, -6.7, -6.0, -5.2, -4.46, -3.84, -3.84, 1.58, 1.11, 1.11, 1.27, 1.13, 1.13, 1.13, 1.13, 1.13, 0.51, 0.51, 0.51, 0.0, 0.0, 0.0, 0.0, 0.0, 0.0, -0.59, -0.81, -0.81, -0.59, -0.51, -1.13, -1.76, -1.19, -0.54, 0.0, 0.53, 0.58, 1.14, 1.23, 1.12, 1.1, 1.2, 0.53, 0.0, 0.0, 0.0, 0.0, 0.0, 0.0, 0.0, 0.58, 0.59, 0.0, 0.0, 0.0, 0.0, 0.0, 0.0, 1.58, 2.68, 3.58, 3.82, 2.4, 3.22, 2.53, 1.27, -1.4, -1.4, -1.58, 0.0, 1.58, 1.26, 1.26, 1.26, 1.79, 2.5, 5.77, 7.97, 7.93, 7.88, 4.01, -0.77, -7.11, -12.68, -12.49, -10.04, -7.13, -3.91, -2.28, -0.77, 0.0, 0.0, -0.63, -0.0, 0.6, 0.0, -1.9, -4.93, -6.94, -5.6, -3.82, -4.24, -4.93, -4.0, -4.0, 1.23, 1.23, 1.11, 1.11, 1.27, 1.13, 1.13, 1.13, 1.13, 0.59, 0.59, 0.59, 0.0, 0.0, 0.0, 0.0, 0.0, -0.59, -1.23, -1.19, -0.61, 0.0, 0.0, -0.57, -0.55, -0.61, 0.0, 0.0, 0.0, 0.58, 0.57, 1.12, 1.2, 1.1, 1.18, 1.1, 0.57, 0.0, 0.0, 0.0, 0.0, 0.0, 0.0, 0.0, 0.58, 0.59, 0.0, 0.0, 0.0, 0.0, 0.0, 1.79, 2.68, 3.58, 4.02, 4.77, 4.24, 5.34, 4.09, 0.0, -0.89, -0.89, 0.0, 0.95, 1.26, 2.12, 1.7, 1.7, 2.68, 4.92, 8.24, 10.82, 10.35, 6.17, -6.39, -11.73, -14.93, -15.44, -14.18, -11.72, -8.56, -5.11, -2.25, 0.0, 0.0, 0.0, -0.63, -0.57, -1.3, -1.94, -4.75, -4.66, -2.91, -1.7, -2.17, -2.91, -3.32, -3.32, 1.08, 1.08, 1.08, 1.23, 1.11, 1.27, 1.27, 1.27, 1.27, 0.59, 0.59, 0.59, 0.0, 0.0, 0.0, 0.0, 0.0, -0.57, -0.63, -0.55, -0.61, 0.0, 0.0, 0.0, -0.54, -0.59, 0.0, 0.0, 0.0, 0.0, 0.57, 0.57, 0.57, 0.56, 0.56, 0.59, 0.59, 0.0, 0.0, 0.0, 0.0, 0.0, 0.0, 0.0, 0.53, 0.54, 0.0, 0.0, 0.0, 0.0, 0.0, 1.79, 2.68, 3.58, 4.02, 4.47, 3.13, 4.41, 3.6, 1.49, -0.63, -0.89, 0.0, 0.89, 2.17, 2.6, 2.24, 1.79, 2.24, 2.63, 2.6, 3.47, 3.89, 3.18, -1.34, -7.94, -11.75, -14.11, -15.2, -14.93, -12.05, -8.37, -5.51, -2.95, -1.5, -0.79, -1.33, -2.79, -5.13, -3.2, -3.15, -2.12, -0.89, -0.45, -1.34, -2.4, -3.07, -3.07, 1.19, 1.19, 1.08, 1.08, 1.23, 1.11, 1.11, 1.11, 1.11, 0.57, 0.57, 0.57, 0.0, 0.0, 0.0, 0.0, 0.0, -0.57, -0.57, -0.55, -0.61, -0.54, -0.54, -0.59, -0.59, -0.53, -0.53, -0.53, 0.0, 0.0, 0.0, 0.0, 0.57, 0.61, 0.56, 0.56, 0.59, 0.59, 0.0, 0.0, 0.0, 0.0, 0.0, 0.0, 0.0, 0.0, 0.0, 0.0, 0.0, 0.0, 0.0, 1.58, 2.68, 3.13, 3.58, 4.02, 2.68, 2.68, 2.8, 2.15, 0.0, -1.26, -0.89, 0.89, 2.6, 3.58, 3.13, 5.36, 2.68, 2.68, -0.0, -3.34, 0.0, 2.36, 3.11, -1.34, -7.6, -10.28, -12.79, -13.92, -13.74, -11.05, -8.53, -7.09, -5.18, -3.8, -3.79, -5.37, -4.43, 0.0, 0.0, 0.0, 0.0, -0.45, -1.2, -2.4, -3.07, -3.07, 1.19, 1.19, 1.19, 1.19, 1.57, 1.76, 1.23, 1.23, 1.23, 1.23, 0.57, 0.57, 0.57, 0.0, 0.0, 0.0, 0.0, 0.0, -0.63, -0.55, -0.55, -0.61, -0.54, -0.54, -0.59, -0.53, -0.53, -0.53, -0.53, -0.53, 0.0, 0.0, 0.0, 0.0, 0.0, 0.0, 0.0, 0.0, 0.0, 0.0, 0.0, 0.0, 0.0, 0.0, 0.0, 0.0, 0.0, 0.0, 0.0, 0.0, 0.0, 0.0, 1.9, 2.4, 3.13, 3.58, 3.58, 1.2, 0.89, 0.65, 0.0, 0.0, -0.6, 0.89, 2.68, 3.58, 4.02, 4.47, 4.47, -0.45, -3.74, -4.83, -1.08, 3.12, 5.38, 3.75, 0.0, -3.32, -8.79, -10.95, -13.0, -12.79, -10.73, -9.53, -7.18, -4.56, -3.9, -2.84, -0.6, 2.24, 2.91, 1.7, 0.0, -0.6, -1.86, -2.8, -2.5, -2.5, 1.19, 1.19, 1.19, 1.19, 1.73, 1.57, 1.76, 1.08, 1.08, 1.08, 0.55, 0.63, 0.57, 0.0, 0.0, 0.0, 0.0, 0.0, 0.0, -0.55, -0.55, -0.55, -0.61, -0.54, -0.54, -0.59, -0.59, -0.53, -0.53, -0.53, -0.58, 0.0, 0.0, 0.0, 0.0, 0.0, 0.0, 0.0, 0.0, 0.0, 0.0, 0.0, 0.0, 0.0, 0.0, 0.0, 0.0, 0.0, 0.0, 0.0, 0.0, 0.0, 0.0, 1.2, 2.4, 3.13, 3.13, 2.24, 0.0, 0.0, 0.0, 0.0, 0.0, 0.6, 2.24, 3.13, 4.02, 4.02, 2.68, 0.0, -2.8, -4.47, -0.76, 1.56, 4.82, 7.74, 6.36, -1.39, -6.64, -9.4, -12.37, -13.18, -11.94, -9.49, -6.65, -4.36, -3.11, -1.16, 1.6, 1.79, 1.26, 1.2, 0.0, -1.2, -1.9, -2.4, -2.4, -2.4, 1.07, 1.07, 1.19, 1.73, 1.73, 1.73, 1.57, 1.57, 1.19, 1.19, 0.55, 0.55, 0.55, 0.0, 0.0, 0.0, 0.0, 0.0, 0.0, 0.0, -0.55, -0.55, -0.61, -0.61, -0.54, -0.54, -0.59, -0.59, -0.59, -0.53, -0.53, -0.53, -0.58, 0.0, 0.0, 0.0, 0.0, 0.0, 0.0, 0.0, 0.0, 0.0, 0.0, 0.0, 0.0, 0.0, 0.0, 0.0, 0.0, 0.0, 0.0, 0.0, 0.0, 0.65, 0.6, 1.2, 2.24, 2.24, 0.45, 0.0, 0.0, 0.0, 0.0, 0.65, 4.47, 2.68, 3.13, 2.24, 1.34, 0.0, -1.9, -2.3, -2.31, 0.0, 3.78, 6.24, 7.12, 2.79, -4.56, -9.26, -11.4, -13.07, -12.25, -9.7, -7.54, -6.35, -4.56, -1.16, 0.57, 0.6, 0.0, -1.16, -0.59, -1.33, -1.88, -2.15, -2.4, -2.4, 1.07, 1.07, 1.07, 1.73, 1.73, 1.73, 1.73, 1.73, 1.19, 1.19, 1.19, 0.55, 0.55, 0.55, 0.0, 0.0, 0.0, 0.0, 0.0, 0.0, 0.0, -0.61, -0.61, -0.61, -0.61, -0.54, -0.54, -0.54, -0.59, -0.59, -0.59, -0.59, -0.59, 0.0, 0.0, 0.0, 0.0, 0.0, 0.0, 0.0, 0.0, 0.0, 0.0, 0.53, 0.59, 0.59, 0.58, 0.0, 0.0, 0.0, 0.0, 0.0, 0.0, 0.61, 0.54, 0.63, 1.34, 1.34, 0.45, -0.0, -0.45, 0.0, 0.0, 1.4, 2.6, 5.36, 3.07, 1.86, 0.0, 0.0, -0.54, -1.49, -3.33, -3.2, -0.77, 0.0, 0.0, 2.31, 0.0, -6.26, -9.72, -9.27, -9.51, -9.34, -8.0, -6.32, -3.14, -0.65, 0.0, 0.0, -0.65, -1.33, -1.27, -1.27, -1.6, -1.88, -2.15, -2.15, 1.07, 1.07, 1.55, 1.73, 1.73, 1.73, 1.73, 1.73, 1.07, 1.07, 1.19, 0.61, 0.55, 0.55, 0.0, 0.0, 0.0, 0.0, 0.0, 0.0, 0.0, -0.61, -0.61, -0.61, -0.61, -0.54, -0.54, -0.54, -0.54, -0.59, -0.59, -0.59, -0.59, -0.59, 0.0, 0.0, 0.0, 0.0, 0.0, 0.0, 0.0, 0.0, 0.0, 0.0, 0.81, 1.73, 0.58, 0.0, -0.58, 0.0, 0.0, 0.0, 0.0, 0.0, 0.0, 0.0, 0.0, 0.0, 0.0, -0.0, -0.45, -0.65, 0.0, 1.26, 2.68, 3.58, 3.53, 2.5, 0.57, 0.0, -0.54, -0.76, -2.4, -5.49, -8.53, -9.02, -7.6, -3.9, 0.0, -2.4, -4.92, -5.88, -5.6, -4.0, -3.07, -1.24, 0.0, 0.0, 0.0, 0.0, 0.0, 0.0, -0.59, -1.94, -1.23, -1.13, -0.61, -0.61, 1.16, 1.16, 1.7, 1.55, 1.73, 1.73, 1.55, 1.7, 1.16, 1.16, 1.07, 1.19, 0.61, 0.61, 0.55, 0.0, 0.0, 0.0, 0.0, 0.0, 0.0, -0.61, -0.61, -0.61, -0.61, -0.54, -0.54, -0.54, -0.54, -0.54, -0.59, -0.54, -0.54, -0.54, 0.0, 0.0, 0.0, 0.0, 0.0, 0.0, 0.0, 0.0, 0.0, 0.0, 0.0, 0.0, 0.0, -0.58, -0.61, 0.0, 0.0, 0.0, 0.0, 0.0, 0.0, 0.0, 0.0, 0.0, 0.0, 0.0, -0.63, -0.71, 0.0, 0.89, 2.6, 3.07, 3.13, 2.5, 1.16, -0.53, -1.88, -1.47, -0.74, -2.99, -8.72, -11.37, -11.25, -8.74, -3.82, -1.27, -3.07, -2.68, -1.2, 0.0, 0.0, 1.2, 1.88, 1.24, 0.57, 0.8, 0.95, 0.71, 0.7, -0.73, -0.63, 0.0, 0.63, 0.63, 1.16, 1.16, 1.7, 1.7, 1.7, 1.7, 1.7, 1.7, 1.16, 1.16, 1.16, 1.07, 0.61, 0.61, 0.61, 0.0, 0.0, 0.0, 0.0, 0.0, 0.0, -0.54, -0.54, -0.54, -0.54, -0.61, -0.61, -0.61, -0.54, -0.54, -0.54, -0.61, -0.61, -0.61, 0.0, 0.0, 0.0, 0.0, 0.0, 0.0, 0.0, 0.0, 0.0, 0.0, -0.59, -1.83, -1.55, -0.59, 0.0, 0.0, 0.0, 0.0, 0.0, 0.0, 0.0, 0.0, 0.0, 0.0, 0.0, -0.63, -0.6, -0.6, 0.0, 0.63, 1.7, 1.86, 1.6, 0.6, 0.0, -0.96, -2.15, -1.9, -0.78, 0.0, -2.4, -8.71, -11.14, -9.39, -6.21, -3.11, -2.51, -0.95, 0.57, 1.61, 1.58, 2.2, 2.18, 2.66, 1.84, 1.24, 1.26, 0.57, 0.61, 0.7, 0.0, 0.0, 0.61, 0.61, 1.7, 1.7, 1.7, 1.7, 1.7, 1.7, 1.7, 1.7, 1.7, 1.16, 1.16, 1.07, 1.07, 0.54, 0.54, 0.61, 0.0, 0.0, 0.0, 0.0, 0.0, -0.54, -0.54, -0.54, -0.54, -0.61, -0.61, -0.55, -0.88, -0.55, -0.55, -0.57, -0.57, 0.0, 0.0, 0.0, 0.0, 0.0, 0.0, 0.0, 0.0, 0.0, 0.0, 0.0, -0.55, -1.73, -1.7, -0.59, 0.0, 0.0, 0.0, 0.0, 0.0, 0.0, 0.0, 0.0, 0.0, 0.0, 0.0, -0.71, -0.6, 0.0, 0.0, 0.0, 1.2, 1.7, 0.95, -0.89, -1.6, -2.12, -0.54, 0.0, -0.95, 0.0, 0.0, -4.85, -8.62, -6.24, -4.71, -4.15, -2.7, -0.59, 1.2, 1.58, 1.55, 2.16, 2.75, 3.83, 3.0, 1.8, 0.65, 0.71, 0.61, 1.47, 0.67, 0.0, 0.63, 0.63, 1.7, 1.7, 1.7, 1.7, 1.7, 1.7, 1.7, 1.7, 1.7, 1.16, 1.16, 1.16, 1.07, 1.07, 0.54, 0.54, 0.0, 0.0, 0.0, 0.0, 0.0, 0.0, -0.54, -0.54, -0.54, -0.61, -0.61, -1.08, -1.08, -0.81, -0.66, -0.59, 0.0, 0.0, 0.0, 0.0, 0.0, 0.0, 0.0, 0.0, 0.0, 0.0, 0.0, 0.0, 0.0, -0.61, 0.0, 0.0, 0.0, 0.0, 0.0, 0.0, 0.0, 0.0, 0.0, 0.0, 0.0, 0.0, 0.0, 0.0, 0.0, 0.0, 0.0, 0.89, 1.34, 1.79, 1.2, 0.0, -1.24, -0.76, 1.2, 1.7, -0.63, -3.91, -3.23, -2.5, -3.76, -2.24, -1.49, -1.32, -1.36, 0.0, 0.72, 1.36, 1.65, 2.26, 3.37, 3.8, 3.8, 2.29, 1.49, 0.76, 0.7, 0.63, 0.69, 0.76, 0.0, 0.0, 1.16, 1.16, 1.7, 1.7, 1.7, 1.7, 1.7, 1.7, 1.7, 1.7, 1.16, 1.16, 1.16, 1.07, 0.54, 0.54, 0.54, 0.0, 0.0, 0.0, 0.0, 0.0, -0.54, -0.54, -0.54, -0.61, -0.61, -1.08, -1.08, -0.63, -0.59, 0.0, 0.0, 0.0, 0.0, 0.0, 0.0, 0.0, 0.0, 0.0, 0.0, 0.0, 0.0, 0.0, 0.0, 0.0, 0.0, 0.0, 0.0, 0.0, 0.0, 0.0, 0.0, 0.0, 0.0, 0.0, 0.0, 0.0, 0.0, 0.0, 0.0, 0.0, 0.95, 1.58, 1.34, 1.34, 1.2, 0.63, 0.0, 0.0, 1.86, 2.23, 0.0, -6.31, -7.22, -2.48, 0.77, 0.61, 0.0, 0.0, -0.69, -0.65, 0.0, 0.65, 2.0, 2.75, 4.03, 3.8, 2.83, 2.18, 1.47, 1.55, 0.63, 0.0, 0.0, 0.71, 0.67, 0.67, 1.16, 1.16, 1.7, 1.7, 1.7, 1.7, 1.7, 1.7, 1.7, 1.7, 1.16, 1.16, 1.16, 1.16, 1.16, 0.54, 0.54, 0.0, 0.0, 0.0, 0.0, 0.0, 0.0, 0.0, -0.61, -0.61, -0.55, -0.55, -0.63, -0.57, -0.57, 0.0, 0.0, 0.0, 0.0, 0.0, 0.0, 0.0, 0.0, 0.0, 0.0, 0.0, 0.0, 0.54, 0.54, 0.0, 0.0, 0.0, 0.0, 0.0, 0.0, 0.0, 0.0, 0.0, 0.0, 0.0, 0.0, 0.0, 0.0, 0.0, 0.0, 0.0, 0.95, 1.58, 1.58, 1.79, -0.0, -0.0, -0.0, 0.89, 1.79, 2.53, 0.0, -3.82, -5.41, -1.55, 3.92, 5.51, 2.28, 0.0, -2.82, -3.53, -1.41, 0.66, 2.8, 2.96, 3.37, 2.97, 2.23, 2.12, 2.06, 1.52, 1.63, 0.69, 0.0, 0.0, 0.67, 0.67, 1.16, 1.16, 1.7, 1.7, 1.7, 1.7, 1.7, 1.7, 1.7, 1.7, 1.16, 1.16, 1.16, 1.16, 1.16, 0.59, 0.59, 0.0, 0.0, 0.0, 0.0, 0.0, 0.0, 0.0, 0.0, -0.55, -0.55, -0.55, -0.57, -0.57, -0.59, 0.0, 0.0, 0.0, 0.0, 0.0, 0.0, 0.0, 0.0, 0.0, 0.0, 0.0, 0.55, 0.61, 0.54, 0.54, 0.0, 0.0, 0.0, -0.59, 0.0, 0.0, 0.0, 0.0, 0.0, 0.0, -0.55, 0.0, 0.0, 0.0, 0.0, 0.0, 0.0, 0.63, 0.63, 1.26, 0.0, -0.0, -0.0, 0.63, 1.34, 1.86, 2.12, 0.0, -1.57, -0.74, 1.51, 3.89, 2.36, -0.72, -4.29, -3.51, -0.54, 1.24, 1.84, 2.9, 2.12, 1.44, 1.44, 1.44, 1.44, 1.49, 1.58, 0.8, 0.0, 0.0, 0.0, 0.0, 1.16, 1.16, 1.7, 1.7, 1.7, 1.7, 1.7, 1.7, 1.7, 1.7, 1.16, 1.16, 1.16, 1.16, 1.16, 0.59, 0.59, 0.59, 0.0, 0.0, 0.0, 0.0, 0.0, 0.0, 0.0, -0.55, -0.55, -0.63, -0.57, -0.57, 0.0, 0.0, 0.0, 0.0, 0.0, 0.0, 0.0, 0.0, 0.0, 0.0, 0.0, 0.0, 0.57, 0.81, 1.19, 0.54, 0.0, 0.0, -0.59, -0.59, -0.54, -0.55, -0.55, -0.55, -0.55, -0.55, -0.55, -0.63, 0.0, 0.0, 0.0, 0.0, 0.0, 0.63, 0.63, 0.0, 0.0, 0.45, 0.89, 0.89, 1.34, 2.24, 3.48, 2.24, 0.0, -2.33, -2.31, -2.28, -3.26, -2.97, -2.16, -0.67, 0.0, 0.57, 1.16, 1.3, 0.71, 0.71, 0.76, 0.69, 0.73, 0.73, 0.73, 0.77, 0.0, 0.0, 0.0, 0.0, 1.16, 1.16, 1.7, 1.7, 1.7, 1.7, 1.7, 1.7, 1.7, 1.7, 1.16, 1.16, 1.16, 1.16, 1.16, 0.59, 0.59, 0.59, 0.0, 0.0, 0.0, 0.0, 0.0, 0.0, 0.0, 0.0, 0.0, 0.0, 0.0, 0.0, 0.0, 0.0, 0.0, 0.0, 0.0, 0.0, 0.0, 0.0, 0.0, 0.0, 0.0, 0.0, 0.0, 0.98, 1.08, 0.59, 0.0, -0.59, -0.54, -0.54, -0.61, -0.55, -0.55, -0.55, -0.55, -0.55, -0.55, -0.57, -0.59, 0.0, 0.0, 0.0, 0.0, 0.0, 0.0, 0.0, 0.0, 0.0, 0.45, 1.34, 1.34, 1.79, 1.49, 1.54, 0.0, -0.75, -3.96, -6.07, -6.43, -4.27, 0.0, 1.4, 0.63, 0.0, 0.0, 0.63, 0.69, 0.74, 0.74, 0.71, 0.76, 0.0, 0.0, 0.0, 0.0, 0.0, 0.0, 0.0, 1.7, 1.7, 1.7, 1.7, 1.7, 1.7, 1.7, 1.7, 1.7, 1.7, 1.16, 1.16, 1.16, 1.16, 1.16, 0.59, 0.59, 0.59, 0.0, 0.0, 0.0, 0.0, 0.0, 0.0, 0.0, 0.0, 0.0, 0.0, 0.0, 0.0, 0.0, 0.0, 0.0, 0.0, 0.0, 0.0, 0.0, 0.0, 0.0, 0.0, 0.0, 0.0, 0.0, 0.0, 0.0, 0.0, -0.58, -0.54, -0.61, -0.55, -0.55, -0.55, -0.55, -0.55, -0.55, -0.55, -0.63, -0.57, -0.59, -0.59, -0.51, -0.53, 0.0, 0.0, 0.0, 0.0, 0.0, 0.0, 0.45, 1.34, 1.79, 0.45, 0.0, 0.0, 2.15, 3.07, 0.0, -3.95, -5.56, -2.87, 0.65, 1.3, 1.36, 0.66, 0.0, 0.0, 0.0, 0.0, 0.0, 0.0, 0.0, 0.0, 0.0, 0.0, 0.0, -0.74, -0.65, 0.0, 1.7, 1.7, 1.7, 1.7, 1.7, 1.7, 1.7, 1.7, 1.7, 1.16, 1.16, 1.16, 1.16, 1.16, 1.16, 0.59, 0.59, 0.59, 0.59, 0.0, 0.0, 0.0, 0.0, 0.0, 0.0, 0.0, 0.0, 0.0, 0.0, 0.0, 0.0, 0.0, 0.0, 0.0, 0.0, 0.0, 0.0, 0.0, 0.0, 0.0, 0.0, 0.0, 0.0, -0.61, -1.13, -1.55, -0.59, -0.61, 0.0, 0.0, -0.55, -0.55, -0.55, -1.08, -1.23, -1.23, -0.57, -0.66, -0.59, -0.59, -0.61, -0.53, 0.0, 0.0, 0.0, 0.0, 0.0, 0.0, 0.89, 1.79, 1.34, 0.0, -1.26, -0.76, 0.0, 4.3, 3.92, 0.0, -2.31, -1.33, 0.0, 1.16, 1.23, 1.3, 0.63, 0.0, 0.0, 0.0, 0.0, 0.0, 0.0, 0.0, -0.73, -0.74, -0.74, -0.81, -0.77, -0.77, 1.7, 1.7, 1.7, 1.7, 1.7, 1.7, 1.7, 1.7, 1.16, 1.16, 1.16, 1.16, 1.16, 1.16, 1.16, 0.59, 0.59, 0.59, 0.59, 0.0, 0.0, 0.0, 0.0, 0.0, 0.0, 0.0, 0.0, 0.0, 0.0, 0.0, 0.0, 0.0, 0.0, 0.0, 0.0, 0.0, 0.0, 0.0, 0.0, 0.0, 0.0, 0.0, 0.0, -0.57, -1.23, -1.73, -0.54, 0.0, 0.0, 0.0, 0.0, -0.55, -0.55, -1.08, -1.23, -1.11, -0.57, -0.59, -0.59, -0.59, -0.51, -0.61, -0.54, 0.0, 0.0, 0.0, 0.0, 0.0, 1.34, 1.79, 0.89, -0.45, -1.6, -1.61, -1.8, -1.07, 0.78, 3.22, 2.34, 0.0, 0.71, 1.13, 1.4, 0.71, 0.0, 0.0, 0.0, 0.0, 0.0, -0.77, -1.4, -1.47, -1.47, -1.47, -1.6, -1.6, -1.6, -1.6, 1.7, 1.7, 1.7, 1.7, 1.7, 1.7, 1.7, 1.16, 1.16, 1.16, 1.16, 1.16, 1.16, 1.16, 1.16, 0.59, 0.59, 0.59, 0.59, 0.59, 0.0, 0.0, 0.0, 0.0, 0.0, 0.0, 0.0, 0.0, 0.0, 0.0, 0.0, 0.0, 0.0, 0.0, 0.0, 0.0, 0.0, 0.0, 0.0, 0.0, 0.0, 0.0, -0.57, -0.57, -1.23, -1.19, -0.54, 0.0, 0.0, 0.0, -0.61, -0.61, -0.55, -1.08, -1.23, -1.11, -0.59, -0.59, -0.59, -0.59, -0.51, -1.16, -1.2, -1.2, 0.0, 0.0, 0.0, 2.24, 1.79, 1.34, 0.45, -0.45, -2.12, -1.88, -3.43, -3.69, -1.5, 2.37, 6.4, 7.04, 5.38, 4.77, 2.13, 0.0, -0.68, -1.36, -1.4, -1.47, -2.11, -2.21, -2.21, -2.89, -2.97, -2.97, -2.97, -3.06, -3.06, -3.06, 1.7, 1.7, 1.7, 1.7, 1.7, 1.7, 1.16, 1.16, 1.16, 1.07, 1.07, 1.07, 1.16, 1.16, 1.16, 0.59, 0.59, 0.59, 0.59, 0.59, 0.59, 0.0, 0.0, 0.0, 0.0, 0.0, 0.0, 0.0, 0.0, 0.0, 0.0, 0.0, 0.0, 0.0, 0.0, 0.0, 0.0, 0.0, 0.0, 0.0, 0.0, -0.59, -0.57, -0.57, -0.55, -1.19, -0.54, -0.54, -0.54, -0.54, -0.54, -0.61, -1.19, -1.08, -1.23, -1.13, -0.59, -0.59, -0.51, -0.59, -1.13, -1.16, -1.16, -1.2, -1.2, 0.0, 0.0, 0.89, 1.34, 0.89, 0.0, -0.89, -2.12, -2.21, -2.07, -1.33, 0.0, 2.34, 6.31, 10.35, 12.73, 11.04, 6.43, 1.4, -2.11, -3.33, -3.44, -3.53, -3.61, -3.69, -3.98, -3.88, -4.4, -4.6, -3.78, -3.88, -3.88, -3.88, 1.7, 1.7, 1.7, 1.7, 1.7, 1.16, 1.16, 1.16, 1.16, 1.07, 1.07, 1.07, 1.16, 1.16, 1.16, 0.59, 0.59, 0.59, 0.59, 0.59, 0.59, 0.59, 0.0, 0.0, 0.0, 0.0, 0.0, 0.0, 0.0, 0.0, 0.0, 0.0, 0.0, 0.0, 0.0, 0.0, 0.0, 0.0, 0.0, -0.61, -0.59, -0.59, -0.57, -1.11, -1.08, -1.08, -0.61, -0.61, -0.54, -0.54, -1.07, -1.19, -1.19, -1.08, -1.23, -1.13, -0.59, -0.61, -0.61, -0.59, -1.13, -1.13, -1.6, -1.61, -1.2, 0.0, 0.0, 0.0, 0.45, 0.89, 0.0, -0.89, -1.6, -1.58, -0.54, 0.0, 1.4, 3.09, 5.63, 9.4, 12.64, 13.27, 9.99, 5.72, 1.36, -3.32, -6.32, -6.36, -5.99, -6.21, -5.21, -5.38, -5.28, -5.52, -5.28, -4.71, -4.71, -4.71, 1.7, 1.7, 1.7, 1.7, 1.16, 1.16, 1.16, 1.16, 1.07, 1.07, 1.07, 1.07, 1.16, 1.16, 0.59, 0.59, 0.59, 0.59, 0.59, 0.59, 0.59, 0.59, 0.0, 0.0, 0.0, 0.0, 0.0, 0.0, 0.0, 0.0, 0.0, 0.0, 0.0, 0.0, 0.0, 0.0, 0.0, 0.0, -0.61, -0.61, -0.59, -1.13, -1.11, -1.23, -1.08, -0.55, -0.55, -0.55, -0.61, -1.19, -1.07, -1.19, -1.19, -1.08, -1.11, -1.13, -0.59, -0.61, -0.61, -0.59, -1.13, -1.13, -1.6, -1.84, -1.61, 0.0, 0.0, 0.0, 0.0, 0.0, -0.45, -0.89, -0.89, -0.63, 0.0, 1.26, 2.21, 3.72, 6.39, 7.69, 9.23, 9.54, 10.47, 11.19, 7.82, 0.67, -5.59, -8.24, -7.73, -6.42, -6.14, -6.14, -6.14, -6.14, -5.86, -5.86, -5.86, -5.86, 1.16, 1.16, 1.16, 1.16, 1.16, 1.16, 1.16, 1.16, 1.07, 1.07, 1.07, 1.07, 1.16, 1.07, 0.54, 0.59, 0.59, 0.59, 0.59, 0.59, 0.59, 0.59, 0.0, 0.0, 0.0, 0.0, 0.0, 0.0, 0.0, 0.0, 0.0, 0.0, 0.0, 0.0, 0.0, 0.0, 0.0, -0.65, -0.61, -1.16, -1.13, -1.27, -1.11, -1.11, -1.11, -0.57, -0.55, -0.55, -0.55, -1.19, -1.19, -1.19, -1.08, -1.23, -1.11, -1.13, -1.13, -0.51, -0.51, -1.13, -1.13, -1.27, -1.8, -1.84, -1.61, -1.2, 0.0, 0.0, 0.0, 0.0, -0.0, -0.63, -0.45, 0.0, 0.89, 1.49, 2.8, 4.0, 6.54, 7.03, 6.24, 7.23, 10.23, 13.49, 12.2, 6.66, -0.68, -6.63, -7.31, -6.98, -6.68, -6.01, -6.01, -6.32, -5.94, -5.3, -5.3, -5.3, 1.16, 1.16, 1.16, 1.16, 1.16, 1.16, 1.16, 1.16, 1.07, 1.07, 1.07, 1.07, 1.07, 0.54, 0.54, 0.59, 0.59, 0.59, 0.59, 0.59, 0.59, 0.59, 0.0, 0.0, 0.0, 0.0, 0.0, 0.0, 0.0, 0.0, 0.0, 0.0, 0.0, 0.0, 0.0, 0.0, -0.65, -0.53, -1.16, -1.33, -1.13, -1.27, -1.11, -1.11, -0.57, -0.57, -0.57, -0.55, -1.08, -1.19, -1.19, -1.19, -1.08, -1.23, -1.27, -1.13, -1.13, -1.13, -1.13, -1.13, -1.27, -1.8, -1.8, -1.84, -1.88, -1.26, -0.6, 0.0, 0.0, 0.0, 0.0, 0.0, -0.0, -0.0, 0.45, 1.7, 2.6, 3.53, 4.24, 5.43, 5.37, 6.05, 9.22, 11.16, 10.2, 7.29, -2.0, -5.67, -5.86, -5.37, -5.06, -4.46, -4.12, -4.43, -3.49, -2.5, -2.5, -2.5, 1.16, 1.16, 1.16, 1.16, 1.16, 1.16, 1.16, 1.16, 1.07, 1.07, 1.07, 1.07, 0.54, 0.54, 0.54, 0.54, 0.59, 0.59, 0.59, 0.54, 0.54, 0.59, 0.0, 0.0, 0.0, 0.0, 0.0, 0.0, 0.0, 0.0, 0.0, 0.0, 0.0, 0.0, 0.0, -0.65, -0.65, -1.16, -1.16, -1.6, -1.8, -1.8, -1.27, -0.59, -0.51, -0.57, -0.57, -0.63, -1.08, -1.08, -1.08, -1.08, -1.23, -1.11, -1.27, -1.13, -1.13, -1.13, -1.13, -1.27, -1.58, -1.58, -1.8, -1.8, -1.88, -1.26, -1.2, -0.63, 0.0, 0.0, 0.0, 0.0, 0.0, -0.0, -0.0, 0.89, 2.24, 3.13, 3.51, 3.45, 4.11, 5.06, 6.24, 6.28, 5.54, 2.08, 0.0, -3.58, -4.47, -3.72, -3.32, -3.15, -2.53, -1.9, -1.2, -0.45, -0.45, -0.45, 1.16, 1.16, 1.16, 1.16, 1.16, 1.16, 1.16, 1.16, 1.07, 1.07, 0.54, 0.61, 0.61, 0.54, 0.54, 0.54, 0.54, 0.54, 0.54, 0.54, 0.54, 0.54, 0.0, 0.0, 0.0, 0.0, 0.0, 0.0, 0.0, 0.0, 0.0, 0.0, 0.0, 0.0, -0.65, -0.65, -1.16, -1.16, -1.84, -1.6, -1.8, -1.27, -1.13, -0.59, -0.59, -0.57, -0.57, -1.11, -1.23, -1.08, -1.23, -1.23, -1.11, -1.27, -1.13, -1.13, -1.13, -1.13, -1.8, -1.58, -1.76, -1.76, -2.22, -2.23, -1.88, -1.49, -1.6, -1.34, -1.34, -0.89, 0.0, 0.0, 0.0, 0.0, -0.0, 0.63, 1.34, 2.24, 2.6, 2.5, 2.53, 3.48, 3.64, 2.28, 0.0, 0.0, 0.0, -2.15, -3.72, -3.09, -2.48, -2.98, -2.5, -1.7, 0.0, -0.0, -0.0, -0.0, 1.16, 1.16, 1.16, 1.16, 1.16, 1.16, 1.16, 1.07, 1.07, 0.54, 0.61, 0.61, 0.61, 0.54, 0.54, 0.54, 0.54, 0.54, 0.54, 0.54, 0.54, 0.54, 0.0, 0.0, 0.0, 0.0, 0.0, 0.0, 0.0, 0.0, 0.0, 0.0, 0.0, -0.65, -0.65, -1.2, -1.16, -1.84, -1.6, -1.8, -1.8, -1.13, -0.59, -0.59, -0.59, -0.57, -0.57, -1.11, -1.23, -1.23, -1.23, -1.11, -1.11, -1.27, -1.13, -1.6, -1.6, -1.8, -1.58, -1.76, -2.22, -2.44, -2.22, -2.48, -1.88, -1.49, -1.7, -2.24, -2.24, -1.79, -1.7, -1.34, -1.2, -0.6, 0.0, -0.0, 1.34, 1.79, 1.86, 1.24, 1.61, 2.23, 2.29, 0.0, -0.74, -0.7, 0.0, -1.26, -2.51, -2.68, -2.23, -2.48, -2.68, -2.24, -0.89, -0.0, -0.0, -0.0, 1.16, 1.16, 1.16, 1.16, 1.16, 1.16, 1.16, 0.54, 0.54, 0.61, 0.61, 0.61, 0.61, 0.61, 0.54, 0.54, 0.54, 0.54, 0.54, 0.54, 0.54, 0.54, 0.0, 0.0, 0.0, 0.0, 0.0, 0.0, 0.0, 0.0, 0.0, 0.0, -0.53, -0.65, -1.2, -1.16, -1.61, -1.84, -1.8, -1.8, -1.13, -1.13, -0.59, -0.59, -0.59, -0.57, -1.11, -1.11, -1.23, -1.23, -1.11, -1.27, -1.13, -1.13, -1.6, -1.6, -1.8, -1.8, -2.22, -2.22, -2.44, -2.86, -2.86, -2.86, -1.95, -1.58, -1.7, -2.17, -2.24, -1.79, -2.24, -2.24, -1.79, -1.7, -0.89, 0.0, 0.45, 0.63, 0.57, 0.71, 1.24, 1.4, 1.5, 1.6, 1.49, 0.72, 0.0, -0.95, -2.5, -2.68, -2.53, -2.53, -2.68, -2.4, -1.26, -0.0, -0.0, -0.0, 1.16, 1.16, 1.16, 1.16, 1.16, 0.59, 0.54, 0.54, 0.61, 0.61, 0.61, 0.61, 0.61, 0.61, 0.61, 0.61, 0.61, 0.61, 0.61, 0.54, 0.54, 0.54, 0.0, 0.0, 0.0, 0.0, 0.0, 0.0, 0.0, 0.0, 0.0, 0.0, -0.53, -0.53, -1.16, -1.16, -1.84, -1.6, -1.8, -1.13, -1.13, -0.59, -0.59, -0.59, -0.59, -0.57, -1.11, -1.11, -1.11, -1.58, -1.58, -1.8, -1.6, -1.6, -1.6, -1.8, -1.8, -2.23, -2.22, -2.86, -2.86, -3.12, -2.86, -2.86, -2.84, -2.15, -1.86, -1.79, -1.79, -1.79, -1.79, -1.34, -1.79, -1.79, -1.34, -1.2, -0.63, -0.63, -0.57, 0.0, 0.0, 0.0, 1.5, 3.09, 4.05, 3.09, 1.24, -0.61, -2.5, -3.13, -2.91, -1.7, -1.26, -1.2, -0.65, -0.0, -0.0, -0.0, 1.16, 1.16, 1.16, 1.16, 0.59, 0.59, 0.54, 0.61, 0.61, 0.61, 0.61, 0.61, 0.61, 0.61, 0.61, 0.61, 0.61, 0.61, 0.61, 0.61, 0.54, 0.0, 0.0, 0.0, 0.0, 0.0, 0.0, 0.0, 0.0, 0.0, 0.0, -0.61, -0.61, -1.16, -1.16, -1.84, -1.6, -1.6, -1.13, -1.13, -0.59, -0.59, -0.59, -0.59, -0.59, -1.11, -1.11, -1.11, -1.58, -1.58, -1.8, -1.6, -1.6, -1.6, -1.6, -1.8, -2.23, -2.48, -2.86, -2.86, -3.49, -3.49, -3.49, -3.2, -3.16, -2.79, -2.4, -2.17, -2.68, -2.17, -1.7, -0.89, -1.34, -1.7, -1.2, -0.63, -1.34, -1.79, -1.86, -1.86, -1.26, -0.61, 0.0, 0.76, 2.33, 2.34, 1.26, -0.0, -0.53, -1.24, -1.2, -0.0, -0.0, -0.0, -0.0, -0.0, -0.0, -0.0, 1.16, 1.16, 1.16, 0.59, 0.59, 0.54, 0.54, 0.61, 0.61, 0.61, 0.61, 0.61, 0.61, 0.55, 0.55, 0.61, 0.61, 0.61, 0.61, 0.61, 0.61, 0.0, 0.0, 0.0, 0.0, 0.0, 0.0, 0.0, 0.0, 0.0, 0.0, -0.61, -0.61, -1.16, -1.33, -1.6, -1.6, -1.13, -1.13, -1.13, -0.59, -0.59, -0.59, -1.13, -1.13, -1.11, -1.11, -1.11, -1.58, -1.8, -1.8, -1.6, -1.6, -1.6, -1.8, -2.23, -2.48, -2.6, -2.86, -3.49, -3.49, -3.49, -3.49, -3.49, -3.48, -3.43, -3.07, -2.91, -3.09, -2.24, -1.79, -1.79, -1.7, -1.26, -0.95, -0.89, -1.34, -2.24, -2.6, -2.6, -2.4, -2.21, -2.2, -2.31, 0.0, 0.78, 0.0, 0.61, 1.27, 1.13, -0.0, -0.0, -0.0, -0.0, -0.0, -0.0, -0.0, -0.0, 1.16, 1.16, 0.59, 0.59, 0.54, 0.54, 0.61, 0.61, 0.61, 0.61, 0.61, 0.55, 0.55, 0.55, 0.55, 0.55, 0.55, 0.55, 0.55, 0.61, 0.61, 0.0, 0.0, 0.0, 0.0, 0.0, 0.0, 0.0, 0.0, 0.0, -0.59, -0.51, -1.33, -1.33, -1.6, -1.6, -1.13, -1.13, -0.99, -0.99, -0.59, -0.59, -1.13, -1.13, -1.13, -1.11, -1.11, -1.58, -1.58, -1.8, -1.8, -1.6, -1.6, -1.8, -2.23, -2.48, -2.86, -2.86, -3.2, -3.49, -3.49, -3.49, -3.79, -4.07, -3.73, -4.0, -3.72, -3.6, -3.39, -2.68, -2.68, -2.68, -2.17, -1.86, -2.12, -1.79, -1.79, -2.24, -2.68, -2.63, -3.07, -3.07, -3.48, -3.88, -3.1, -1.59, -0.76, 0.0, 1.27, 2.0, 0.63, -0.0, -0.0, -0.0, -0.0, -0.0, -0.0, -0.0, 0.59, 0.59, 0.59, 0.54, 0.54, 0.61, 0.61, 0.0, 0.0, 0.0, 0.55, 0.55, 0.55, 0.55, 0.55, 0.55, 0.55, 0.55, 0.55, 0.55, 0.0, 0.0, 0.0, 0.0, 0.0, 0.0, 0.0, 0.0, 0.0, -0.59, -0.59, -1.13, -1.13, -1.13, -1.8, -1.13, -1.13, -1.13, -0.99, -1.13, -1.13, -1.13, -1.13, -1.13, -1.13, -1.27, -1.11, -1.58, -1.8, -1.8, -1.8, -1.6, -1.8, -2.23, -2.23, -2.86, -3.15, -3.2, -3.49, -3.49, -3.49, -3.79, -3.79, -4.07, -4.07, -4.07, -4.0, -3.88, -4.11, -4.34, -4.88, -3.13, -2.63, -2.17, -2.17, -2.24, -2.24, -2.24, -2.24, -2.68, -2.68, -3.32, -3.79, -4.5, -4.61, -3.18, -1.54, -1.4, 0.0, 0.7, 0.66, -0.0, -0.0, -0.0, 0.53, -0.0, -0.0, -0.0, 0.59, 0.59, 0.59, 0.54, 0.54, 0.61, 0.0, 0.0, 0.0, 0.0, 0.55, 0.55, 0.55, 0.55, 0.55, 0.55, 0.55, 0.55, 0.55, 0.0, 0.0, 0.0, 0.0, 0.0, 0.0, 0.0, 0.0, 0.0, 0.0, -0.59, -0.59, -1.13, -1.13, -1.8, -1.27, -1.13, -1.13, -0.99, -1.13, -1.13, -1.13, -1.13, -1.13, -1.13, -1.13, -1.27, -1.8, -1.8, -1.8, -1.8, -1.8, -1.8, -2.23, -2.23, -2.86, -2.86, -2.86, -3.2, -3.49, -3.49, -3.49, -3.79, -4.07, -4.07, -4.07, -4.07, -4.37, -4.17, -4.4, -4.6, -4.77, -3.13, -2.68, -0.89, -0.89, -1.34, -2.17, -1.7, -2.12, -2.68, -3.13, -3.32, -4.46, -4.6, -4.55, -3.9, -1.57, -0.75, -0.67, 0.0, -0.0, -0.0, -0.0, 0.61, 0.61, -0.0, -0.0, -0.0, 0.59, 0.59, 0.54, 0.54, 0.61, 0.0, 0.0, 0.0, 0.0, 0.0, 0.0, 0.55, 0.55, 0.55, 0.55, 0.55, 0.55, 0.0, 0.0, 0.0, 0.0, 0.0, 0.0, 0.0, 0.0, 0.0, 0.0, 0.0, -0.57, -0.57, -1.27, -1.27, -1.27, -1.8, -1.13, -1.13, -1.13, -1.13, -1.13, -1.13, -1.13, -1.13, -1.13, -1.13, -1.13, -1.27, -1.8, -1.8, -1.8, -1.8, -2.23, -2.23, -2.23, -2.48, -2.86, -3.15, -3.2, -3.2, -3.2, -3.49, -3.49, -3.79, -4.07, -4.07, -4.07, -4.07, -4.29, -4.55, -4.8, -4.4, -4.6, -4.77, -3.39, -0.45, 0.0, -0.63, -1.7, -1.49, -2.12, -2.68, -3.53, -3.6, -4.46, -4.71, -4.48, -3.04, -1.56, 0.0, 0.0, 0.0, 0.0, 0.0, 0.6, 0.57, 0.57, -0.0, -0.0, -0.0, 0.59, 0.59, 0.54, 0.54, 0.61, 0.0, 0.0, 0.0, 0.0, 0.0, 0.0, 0.55, 0.55, 0.55, 0.55, 0.55, 0.55, 0.0, 0.0, 0.0, 0.0, 0.0, 0.0, 0.0, 0.0, 0.0, 0.0, 0.0, -0.57, -0.57, -1.27, -1.27, -1.27, -1.8, -1.13, -1.13, -1.13, -1.13, -1.13, -1.13, -1.13, -1.13, -1.13, -1.13, -1.13, -1.27, -1.8, -1.8, -1.8, -1.8, -2.23, -2.23, -2.23, -2.48, -2.86, -3.15, -3.2, -3.2, -3.2, -3.49, -3.49, -3.79, -4.07, -4.07, -4.07, -4.07, -4.29, -4.55, -4.8, -4.4, -4.6, -4.77, -3.39, -0.45, 0.0, -0.63, -2.12, -1.49, -2.12, -2.68, -3.53, -3.6, -4.46, -4.83, -4.5, -2.97, -1.54, -0.78, 0.0, 0.78, 0.0, 0.0, 0.0, 0.57, 0.6, 0.0, 0.0, 0.0]}]